[{"header": {"dx": 0.06612293990616946, "dy": 0.0552356325346848, "nx": 98, "ny": 59, "la1": 35.046912555036876, "la2": 31.78801023549047, "lo1": -121.43107172385933, "lo2": -114.95102361305473, "refTime": "2026040714", "parameterCategory": 1, "parameterNumber": 2}, "data": [6.29, 6.31, 5.89, 5.89, 5.67, 5.04, 4.63, 4.0, 3.6, 3.42, 3.45, 3.49, 1.88, 0.57, 0.57, 0.0, -2.15, -4.0, -4.57, -5.73, -6.26, -6.17, -4.09, -4.09, -3.48, -2.51, -2.53, -2.5, -2.4, -1.86, -1.7, -0.8, -0.45, 0.0, 0.45, 0.89, 1.34, 0.45, -0.0, -0.4, -0.0, 1.6, 2.68, 4.57, 8.15, 10.53, 12.89, 13.14, 13.11, 8.9, 1.2, -0.0, 1.24, 1.88, 3.07, 2.98, 4.11, 5.09, 5.82, 5.75, 2.12, -0.57, -1.86, -0.89, 0.6, 1.9, 3.45, 5.34, 7.21, 9.11, 9.58, 8.46, 6.71, 5.81, 5.81, 6.66, 8.01, 6.26, 1.34, -1.79, -2.4, -2.4, -2.6, -2.24, -1.34, -0.89, 0.0, 0.0, 2.12, 4.0, 6.7, 6.01, 5.59, 5.3, 4.29, 2.98, 0.7, 0.0, 6.29, 6.29, 5.64, 5.89, 5.67, 5.69, 5.29, 4.66, 4.03, 3.6, 3.42, 2.07, 1.88, 1.58, 1.26, 0.8, 0.0, -1.9, -3.74, -4.52, -6.88, -6.71, -5.29, -4.22, -3.16, -2.51, -2.53, -2.5, -3.07, -3.13, -2.6, -2.17, -1.7, -0.95, -0.0, 0.95, 2.24, 1.79, 0.89, 0.0, 0.89, 2.12, 5.37, 7.31, 9.48, 11.38, 12.72, 12.72, 11.14, 2.5, -0.0, 0.71, 1.88, 2.79, 2.98, 2.98, 4.01, 5.43, 6.07, 6.94, 4.8, 0.89, -0.45, -0.0, 1.24, 2.21, 4.4, 5.75, 6.79, 9.06, 9.58, 8.36, 6.71, 4.87, 3.97, 5.36, 8.91, 6.26, 1.34, -1.79, -2.4, -2.4, -2.6, -2.24, -1.34, -0.89, 0.0, 0.0, 2.12, 4.0, 6.7, 6.01, 5.59, 5.3, 4.29, 2.98, 0.7, 0.0, 6.29, 6.29, 5.86, 5.64, 5.89, 5.67, 5.26, 4.63, 4.0, 4.03, 3.4, 3.42, 2.07, 1.88, 1.58, 1.26, 1.9, 1.0, -1.61, -3.45, -4.52, -6.99, -7.74, -6.26, -3.95, -3.14, -2.23, -2.53, -2.91, -3.58, -3.53, -3.58, -3.09, -2.23, -0.0, 1.58, 2.91, 3.58, 3.07, 2.4, 2.21, 5.69, 8.37, 10.05, 10.87, 11.14, 12.02, 9.95, 1.88, -0.71, -0.0, 1.4, 2.15, 2.98, 2.66, 3.22, 4.01, 5.43, 6.44, 6.94, 6.94, 5.16, 2.23, 1.88, 2.51, 3.79, 5.09, 6.07, 6.7, 8.24, 9.08, 9.11, 7.15, 4.24, 3.07, 4.66, 9.36, 8.49, 1.2, -2.24, -1.79, -1.34, -1.34, -1.7, -2.17, -2.17, -1.2, 0.0, 2.15, 6.44, 8.3, 7.31, 6.14, 5.49, 3.72, 1.88, 1.2, 0.54, 5.86, 5.86, 5.86, 5.86, 5.64, 5.89, 5.67, 5.04, 4.42, 4.0, 4.03, 3.4, 2.2, 1.84, 1.49, 1.9, 2.5, 2.5, 1.24, -1.9, -3.6, -4.15, -7.4, -8.4, -7.12, -3.95, -3.07, -1.88, -1.58, -2.68, -4.0, -4.93, -4.73, -3.07, 0.45, 1.79, 3.13, 4.38, 6.4, 6.39, 7.82, 9.39, 10.21, 9.67, 9.17, 9.66, 7.79, 1.88, -0.54, -0.0, 1.33, 2.15, 2.3, 2.98, 3.11, 3.64, 4.43, 5.43, 6.64, 7.47, 7.21, 5.86, 4.46, 3.72, 3.9, 4.65, 5.43, 5.69, 6.95, 8.24, 9.9, 10.43, 7.89, 3.07, 1.84, 2.98, 7.2, 10.02, 1.26, -3.07, -2.6, -1.2, -1.7, -2.91, -3.51, -2.68, -0.89, 0.6, 3.84, 8.3, 9.3, 7.35, 5.59, 2.79, 0.95, 0.89, 2.12, 2.4, 5.86, 5.86, 5.86, 5.86, 5.86, 5.64, 5.67, 5.26, 4.63, 4.42, 4.0, 3.81, 2.2, 1.33, 1.33, 2.15, 2.53, 2.84, 1.88, -1.2, -4.57, -6.64, -4.47, -7.52, -7.45, -7.08, -3.58, -2.24, -0.89, -0.89, -1.9, -4.12, -6.64, -4.71, 0.0, 1.98, 2.8, 6.32, 8.46, 9.12, 9.28, 9.22, 8.12, 7.69, 7.67, 8.24, 5.44, 2.4, 1.88, 2.41, 2.84, 2.79, 3.07, 2.4, 3.64, 4.74, 4.74, 5.09, 7.07, 8.14, 7.71, 5.34, 3.72, 4.16, 5.3, 6.06, 5.37, 5.37, 6.24, 7.59, 9.9, 10.8, 9.6, 5.86, 2.17, 1.23, 3.79, 7.03, 2.8, -2.4, -3.07, -2.5, -3.07, -5.16, -3.74, -1.9, 0.54, 2.53, 6.32, 8.3, 7.69, 6.08, 2.15, -0.32, -0.63, 1.34, 3.07, 3.74, 5.86, 5.86, 5.86, 5.86, 5.86, 5.86, 5.64, 5.23, 5.26, 4.63, 4.0, 3.37, 2.0, 1.49, 1.6, 2.07, 2.3, 2.53, 2.98, 0.0, -5.46, -8.24, -7.81, -7.31, -5.94, -6.4, -4.98, -2.53, -1.2, 0.0, 0.95, 0.0, -1.27, -3.85, -0.71, 0.7, 2.25, 5.99, 9.49, 8.5, 5.38, 4.18, 3.48, 6.98, 10.7, 11.52, 9.81, 6.26, 4.24, 3.45, 2.84, 2.79, 2.73, 2.98, 3.43, 4.81, 5.09, 5.09, 7.03, 9.33, 8.19, 4.46, 4.01, 4.65, 5.37, 6.06, 5.37, 4.43, 4.36, 7.07, 9.08, 10.01, 9.27, 9.27, 6.79, 2.8, 1.49, 1.84, 1.49, -1.26, -3.14, -3.48, -3.72, -4.46, -2.98, -0.69, 1.49, 3.91, 6.24, 6.32, 5.37, 5.43, 0.57, -2.68, -0.63, 2.5, 5.05, 5.05, 5.86, 5.86, 5.86, 5.86, 5.86, 5.86, 5.64, 5.89, 5.02, 4.6, 3.97, 3.35, 2.0, 1.4, 2.2, 1.6, 2.3, 3.22, 4.46, 2.72, -0.61, -3.72, -7.06, -7.59, -5.2, -4.21, -4.4, -3.3, -2.21, -1.27, 0.0, 0.89, 1.2, 0.0, 0.0, 0.0, 0.75, 4.28, 7.68, 5.41, 3.25, 1.02, 3.21, 6.7, 10.82, 11.44, 10.25, 6.66, 3.97, 4.98, 3.93, 2.51, 2.98, 3.43, 3.48, 4.46, 5.05, 5.05, 6.79, 9.11, 7.71, 4.8, 3.49, 3.16, 2.07, 3.72, 5.82, 4.46, 3.6, 6.55, 8.46, 8.46, 7.92, 9.36, 8.91, 6.26, 3.07, 1.2, 1.79, 2.4, -1.41, -2.26, -2.18, -2.31, -0.78, 0.67, 1.58, 2.28, 3.09, 3.79, 4.22, 1.27, -3.07, -3.58, 0.0, 2.79, 6.08, 5.46, 5.86, 5.86, 5.86, 5.86, 5.86, 5.86, 5.86, 5.64, 5.23, 4.57, 3.94, 2.83, 1.6, 2.15, 4.29, 2.84, 3.48, 4.43, 5.06, 5.09, 3.13, 3.07, 1.2, -1.35, -4.71, -3.25, -3.08, -4.15, -5.21, -5.15, -2.41, -0.76, 0.76, 1.83, 2.01, 0.7, 0.71, 2.19, 5.64, 5.2, 1.66, 1.95, 3.14, 4.24, 4.4, 2.68, 3.45, 3.97, 4.43, 5.4, 3.07, 2.79, 3.72, 4.11, 4.81, 5.05, 5.43, 6.28, 6.98, 7.89, 6.98, 3.82, 2.4, 0.65, -0.0, 1.84, 5.05, 5.16, 3.58, 4.92, 7.6, 8.05, 9.26, 10.32, 9.83, 7.12, 5.32, 4.8, 6.07, 6.71, 2.51, -0.65, -0.67, 0.0, 0.71, 2.02, 2.15, 0.74, 0.66, 1.41, 0.0, -3.45, -5.31, -2.5, 0.0, 3.72, 6.06, 4.74, 5.86, 5.86, 5.86, 5.86, 5.86, 5.86, 5.86, 5.86, 5.2, 5.0, 4.57, 3.42, 2.17, 2.57, 3.4, 3.22, 4.29, 4.65, 4.81, 4.22, 4.02, 5.4, 5.16, 3.07, 0.0, -0.7, -1.66, -5.72, -7.65, -5.46, -2.13, 0.0, 0.0, 2.06, 1.52, 1.5, 2.1, 2.02, 1.83, 1.26, 0.89, 1.86, 2.21, 0.8, -0.89, -1.2, 0.0, 1.34, 2.63, 2.53, 3.22, 2.79, 3.43, 4.81, 5.46, 6.07, 6.54, 6.94, 7.28, 7.89, 7.45, 3.13, -0.0, -0.61, -0.0, 1.88, 5.34, 6.07, 3.58, 3.51, 6.21, 8.84, 11.18, 11.09, 8.97, 6.21, 4.92, 7.11, 8.94, 9.36, 4.87, 0.0, 0.0, 0.0, 1.4, 2.63, 2.06, 0.0, -0.6, -1.86, -3.82, -4.88, -4.11, -2.15, 0.61, 4.01, 6.06, 4.74, 5.86, 5.86, 5.86, 5.86, 5.86, 5.86, 5.62, 5.62, 5.86, 5.2, 5.2, 5.17, 4.76, 2.82, 1.63, 2.49, 4.01, 4.01, 3.25, 3.14, 3.2, 1.8, 2.86, 3.2, 2.23, 0.6, -0.71, -3.48, -7.65, -3.34, 0.0, 1.01, 0.0, 0.0, 0.0, 0.0, 3.17, 1.2, 0.0, -0.0, 1.58, 2.17, 1.79, -0.0, -0.57, -0.99, -0.95, -0.63, -0.0, -0.0, 1.33, 2.53, 4.46, 5.6, 6.07, 7.03, 7.6, 7.89, 7.76, 7.92, 8.01, 4.02, -0.0, -0.7, -0.0, 2.15, 5.34, 5.94, 3.97, 3.51, 6.07, 9.46, 11.75, 10.84, 8.84, 7.01, 6.28, 7.28, 8.71, 10.26, 9.39, 4.24, 0.0, 0.59, 1.13, 2.51, 3.14, 2.4, 0.63, -1.7, -3.58, -3.39, -2.53, -1.33, 0.59, 3.43, 5.06, 3.72, 5.86, 5.86, 5.86, 5.86, 5.86, 5.86, 5.62, 5.83, 5.83, 5.83, 5.83, 5.83, 6.27, 5.2, 3.25, 2.99, 4.0, 3.47, 2.92, 2.35, 1.55, 0.78, 1.27, 1.88, 1.24, 0.0, 0.0, -0.95, -1.4, -1.03, 0.0, 0.0, -0.89, -0.45, 0.0, 0.0, 0.79, 0.0, -0.0, 1.2, 2.12, 1.79, 1.34, 0.0, -0.89, -0.95, -0.57, -0.0, -0.57, -0.61, -0.0, 2.4, 3.82, 5.6, 6.44, 7.07, 8.0, 8.19, 8.01, 7.6, 8.05, 4.47, 0.61, -0.59, -0.0, 2.51, 5.46, 6.4, 4.73, 4.02, 7.21, 9.68, 10.6, 9.4, 8.67, 9.15, 7.73, 7.07, 8.3, 10.55, 10.6, 8.06, 3.07, 1.61, 2.8, 3.53, 3.98, 4.92, 4.02, 2.24, 0.0, -1.9, -1.16, 0.0, 1.13, 2.79, 3.48, 1.84, 5.86, 5.86, 5.86, 5.86, 5.86, 5.62, 5.83, 5.83, 5.83, 5.83, 6.25, 6.25, 6.5, 6.94, 6.98, 5.92, 5.02, 4.48, 3.53, 2.3, 0.57, -0.53, -1.58, -1.6, -1.6, -1.79, -1.79, -1.86, -1.26, -1.34, -1.58, -1.34, -1.26, -1.26, 0.0, 0.0, -0.57, -0.89, 0.45, 0.89, 0.89, 0.45, 0.45, 0.0, -0.45, -0.89, -0.89, -0.89, -0.89, 0.45, 0.0, 1.58, 2.68, 3.53, 4.0, 4.52, 6.98, 8.01, 7.6, 7.01, 5.32, 3.39, -0.0, -0.7, 0.53, 2.51, 5.37, 6.7, 6.0, 5.81, 7.12, 8.38, 7.81, 6.36, 6.79, 9.33, 8.55, 7.06, 8.24, 9.84, 9.3, 8.0, 5.86, 1.9, 2.63, 3.53, 4.88, 5.78, 5.32, 4.47, 3.07, 1.24, 0.0, 0.54, 1.84, 2.53, 1.9, 0.0, 5.86, 5.86, 5.86, 5.86, 5.86, 5.83, 5.83, 5.83, 6.5, 6.25, 6.25, 6.46, 6.9, 7.57, 8.24, 7.93, 7.27, 6.06, 5.06, 3.94, 2.1, 0.0, -2.24, -3.58, -3.58, -3.58, -3.98, -4.19, -4.9, -5.57, -3.13, -2.24, -2.24, -1.79, -0.89, -1.79, -2.24, -1.79, -1.79, -1.34, -0.89, -0.89, 0.45, 0.0, 0.0, 0.0, -0.76, -1.33, -0.7, 0.0, 0.0, 0.0, 0.57, 1.27, 1.6, 2.95, 3.6, 6.17, 7.01, 3.82, 1.34, 0.57, -0.0, -0.57, -0.0, 1.24, 2.07, 3.48, 4.93, 5.64, 6.21, 6.22, 5.81, 5.36, 6.79, 9.08, 9.2, 7.33, 7.94, 7.94, 6.35, 6.06, 7.32, 6.7, 2.91, 4.41, 6.51, 5.44, 4.77, 4.88, 5.32, 3.39, 2.6, 1.86, 2.21, 1.86, 0.0, -1.9, 5.86, 5.86, 5.86, 5.86, 5.62, 5.83, 6.27, 6.27, 6.5, 6.25, 6.46, 6.9, 7.13, 7.95, 8.59, 9.17, 8.5, 7.55, 6.92, 6.34, 6.28, 4.29, 1.49, -0.63, -2.63, -3.58, -4.02, -4.77, -5.09, -5.7, -5.36, -3.13, -2.24, -1.79, -1.7, -2.24, -2.68, -2.24, -2.68, -2.6, -2.17, -1.79, -0.89, 0.45, 0.45, 0.0, 0.0, 0.0, 0.0, 0.0, 0.0, 0.0, 2.16, 1.07, 1.11, 0.69, 1.03, 2.41, 3.83, 0.89, -1.7, -0.89, 0.0, 0.0, 0.0, 0.0, 0.0, 1.79, 2.68, 3.53, 3.6, 4.0, 5.16, 6.26, 7.71, 9.08, 7.6, 5.09, 5.46, 4.46, 2.84, 4.56, 7.61, 7.96, 4.43, 5.46, 6.54, 4.52, 3.82, 4.47, 5.81, 4.87, 3.82, 2.8, 2.5, 1.2, -1.2, -1.9, 5.86, 5.86, 5.86, 5.86, 5.83, 6.27, 6.27, 6.5, 6.5, 6.46, 6.9, 6.9, 7.55, 8.2, 8.86, 9.21, 9.17, 8.5, 7.81, 7.55, 8.08, 8.05, 6.8, 4.27, 0.99, -0.6, -1.79, -2.68, -3.87, -4.77, -4.89, -4.92, -2.68, -1.6, -1.2, -1.2, -1.34, -1.79, -2.97, -2.8, -2.4, -1.34, 0.45, 0.0, -0.0, -0.0, 0.89, 0.71, 0.65, 0.0, 0.0, 1.04, 0.96, 0.0, 0.0, 0.0, 0.79, 1.94, 2.23, 0.0, -1.34, -0.89, 0.0, 0.0, -0.88, -0.7, 0.0, 0.0, -0.45, -0.0, 1.58, 3.39, 4.92, 6.66, 7.47, 5.16, 3.13, 1.79, 1.7, 1.7, 1.86, 2.84, 5.72, 6.52, 4.73, 4.83, 5.09, 3.74, 3.53, 4.02, 5.77, 5.67, 4.52, 3.74, 3.04, 0.0, -1.24, -1.24, 5.62, 5.86, 5.86, 5.62, 6.27, 6.27, 6.27, 6.5, 6.5, 6.9, 6.9, 7.55, 7.55, 8.2, 8.86, 9.5, 9.5, 9.46, 8.5, 8.45, 8.73, 9.21, 8.96, 8.0, 5.6, 4.11, 2.4, 1.34, 0.0, -1.6, -3.07, -3.53, -3.58, -1.79, -0.89, -0.45, -0.45, -1.26, -1.9, -3.35, -2.23, -0.95, 0.45, -0.0, -1.58, -1.2, -0.0, 0.89, 0.45, 0.63, 0.71, 0.71, 0.45, -0.0, -0.6, -0.0, 0.8, 1.49, 0.6, 0.45, 0.0, 0.0, 0.45, 0.0, 0.0, -0.95, -2.04, -3.51, -2.8, -0.0, 1.34, 3.53, 4.3, 5.86, 4.43, 1.7, -0.57, -1.26, -1.6, -0.63, 0.0, 1.7, 2.8, 5.59, 5.16, 2.6, 1.88, 2.4, 2.68, 3.07, 5.64, 4.0, 3.07, 3.82, 3.32, 0.71, 0.0, 0.0, 5.62, 5.62, 5.62, 5.83, 6.27, 6.27, 6.27, 6.5, 6.5, 6.9, 6.9, 7.55, 7.55, 8.2, 8.86, 9.5, 9.21, 9.48, 9.46, 9.37, 9.3, 9.76, 9.88, 9.01, 8.64, 7.87, 7.07, 6.16, 4.88, 3.13, 1.34, 0.45, -1.79, -1.34, -0.63, -0.0, -0.6, -1.58, -1.9, -1.9, -1.79, -1.34, -2.0, -1.2, -1.58, -1.58, -1.58, -1.79, -0.0, -0.0, -0.0, -0.0, -1.26, 0.89, 0.89, 0.0, 0.45, 0.45, 0.45, 0.0, 0.45, 0.89, -0.0, -0.0, 0.89, 0.54, -1.49, -3.51, -2.6, 0.0, 2.23, 3.14, 4.0, 3.39, 0.45, -2.4, -2.4, -2.4, -2.4, -1.49, -0.0, 1.34, 2.63, 3.82, 5.16, 3.07, 1.79, 1.79, 2.8, 5.86, 7.06, 4.0, 2.79, 4.09, 4.84, 1.61, 0.0, 0.0, 5.62, 5.62, 5.83, 5.83, 6.27, 6.27, 6.27, 6.5, 6.92, 7.16, 6.9, 7.55, 7.95, 8.2, 8.59, 9.21, 10.12, 9.8, 9.72, 9.37, 9.76, 10.02, 9.88, 9.43, 9.77, 10.27, 10.14, 9.23, 7.87, 6.47, 4.6, 2.91, 0.63, 0.89, -0.71, -1.24, -2.4, -2.6, -2.68, -2.24, -1.79, -2.24, -2.24, -1.34, -2.24, -1.79, -1.79, -1.79, -1.79, -1.58, -1.58, -1.58, 1.34, 0.89, 0.45, 0.45, 0.45, 0.89, 1.34, 1.34, -0.0, -0.0, -0.0, -0.0, -0.0, -0.0, 0.89, 0.0, -0.88, -0.81, 0.0, 1.27, 1.2, 0.0, -1.79, -2.91, -3.07, -2.68, -1.79, -0.89, 0.45, 1.7, 2.91, 4.73, 3.14, 2.86, 3.84, 2.68, 3.83, 5.46, 6.0, 4.4, 3.72, 4.75, 4.46, 1.88, 0.54, 0.54, 5.62, 5.62, 5.83, 5.83, 6.27, 6.27, 6.27, 6.5, 6.92, 7.16, 7.16, 7.55, 7.95, 8.22, 8.22, 8.37, 8.87, 9.5, 9.42, 9.58, 10.55, 11.47, 10.02, 8.0, 7.71, 9.6, 8.48, 7.35, 6.0, 6.28, 5.21, 4.0, 2.5, 0.45, -0.57, -2.23, -3.35, -4.47, -3.07, -3.04, -2.4, -2.6, -2.24, -2.68, -2.68, -2.24, -1.79, -1.79, -1.58, -1.58, -1.26, -1.26, -0.0, -0.0, 1.34, 0.89, 0.45, 0.89, 1.34, 0.89, 1.34, -0.0, -0.0, -0.57, -0.71, -0.8, 0.45, 2.53, 2.2, 0.0, 0.0, 1.9, 3.58, 3.58, 1.79, 0.0, -2.24, -3.07, -2.15, -0.57, 1.61, 2.79, 3.49, 3.49, 3.84, 4.43, 5.3, 4.74, 6.06, 3.43, 2.84, 5.05, 5.69, 4.43, 3.72, 2.15, 1.4, 1.4, 5.62, 5.62, 5.83, 5.83, 6.27, 6.27, 6.27, 6.5, 6.92, 6.92, 7.57, 7.57, 8.22, 8.22, 8.86, 8.59, 8.87, 7.6, 6.79, 7.64, 9.92, 11.62, 10.59, 8.65, 7.97, 7.64, 6.7, 5.69, 5.65, 5.06, 4.43, 4.07, 2.51, 0.6, -0.63, -2.5, -3.82, -4.47, -4.89, -4.8, -4.34, -4.47, -4.02, -3.58, -3.13, -2.24, -2.24, -2.68, -2.4, -1.58, -1.58, -1.58, -1.58, -1.26, -0.0, 0.0, 1.34, 0.45, 0.45, 0.89, 1.34, -0.0, -1.58, -1.2, -0.8, -0.95, 0.0, 2.4, 3.53, 3.51, 3.32, 7.71, 11.66, 12.87, 9.36, 4.0, 1.61, -0.57, -1.61, 0.0, 1.2, 2.21, 2.0, 0.89, 0.89, 1.49, 1.26, 1.34, 3.07, 2.4, 2.15, 5.06, 6.06, 3.79, 2.8, 3.55, 1.49, 1.49, 5.62, 5.62, 5.62, 5.83, 6.27, 6.27, 6.27, 6.68, 6.92, 6.92, 7.57, 7.57, 8.22, 8.22, 8.86, 8.86, 8.87, 7.6, 6.31, 7.24, 9.48, 10.69, 10.4, 9.8, 9.5, 8.56, 6.34, 3.85, 2.84, 2.84, 3.22, 3.2, 2.23, 1.0, 0.0, -2.24, -3.53, -4.02, -4.47, -4.47, -4.47, -4.47, -4.47, -4.02, -3.58, -2.68, -2.68, -2.68, -2.4, -2.0, -1.58, -1.58, -1.26, -1.79, 1.34, 0.0, 0.45, 0.45, 0.89, 0.45, -0.0, -2.21, -2.53, -2.68, -1.34, -1.34, -0.89, 0.0, 1.9, 3.64, 5.21, 7.59, 11.04, 12.3, 10.18, 7.02, 2.0, 0.0, -2.21, -1.61, 0.0, 0.0, -0.0, -0.65, -1.49, -1.86, -1.2, -0.0, 3.13, 3.58, 5.05, 6.01, 5.69, 2.73, 1.88, 2.04, 0.59, 0.59, 5.62, 5.62, 5.62, 5.83, 6.27, 6.53, 6.53, 6.68, 6.92, 6.92, 7.57, 7.57, 8.22, 8.22, 8.86, 8.86, 8.59, 8.24, 8.23, 9.21, 9.82, 9.5, 9.5, 9.5, 10.13, 9.17, 6.95, 3.83, 1.6, 1.33, 1.8, 2.23, 1.8, 1.16, 0.0, -1.6, -2.68, -3.58, -4.02, -4.02, -4.02, -4.02, -4.02, -4.02, -3.58, -3.13, -3.13, -3.13, -2.68, -2.68, -2.24, -2.24, -2.24, -1.79, 0.89, 0.45, 0.0, -0.45, 0.89, 0.89, -0.95, -1.24, -1.58, -1.2, -1.34, -0.89, -0.89, -0.89, -0.0, -0.0, 0.7, 4.47, 8.63, 8.82, 3.9, 4.05, 4.87, 1.8, -1.26, -3.39, -3.32, -2.12, -1.2, -1.26, -1.26, -1.7, -1.79, 0.0, 3.78, 7.33, 8.55, 7.61, 4.74, 1.9, 0.0, 0.0, 0.0, 0.0, 5.62, 5.62, 5.86, 5.86, 6.53, 6.53, 6.53, 6.94, 7.19, 6.92, 7.32, 7.57, 7.96, 8.22, 8.86, 8.59, 8.59, 8.59, 9.21, 10.43, 10.72, 10.06, 9.46, 9.19, 9.5, 9.46, 8.15, 5.65, 3.16, 1.61, 1.0, 0.65, 1.16, 1.16, 0.53, 0.0, -1.7, -2.68, -3.58, -3.58, -3.58, -3.58, -3.58, -3.53, -3.53, -3.07, -2.97, -2.8, -2.68, -2.68, -2.24, -2.24, -2.24, -1.79, 1.34, 1.34, -0.63, -1.2, 0.45, 0.0, -0.0, -0.6, -0.6, -0.63, -0.89, -0.89, -0.45, 0.45, 0.45, -0.89, -1.2, 0.6, 4.87, 2.12, 0.0, 0.67, 3.31, 2.66, 0.0, -3.13, -3.98, -3.53, -2.17, -1.7, -1.7, -1.6, -0.65, 0.66, 4.71, 8.22, 9.21, 5.69, 2.21, 0.45, -0.63, 0.0, 0.0, 0.0, 5.86, 5.86, 5.86, 5.86, 6.29, 6.53, 6.53, 6.94, 6.94, 7.19, 7.59, 7.57, 7.96, 8.22, 8.59, 8.87, 8.87, 8.87, 9.5, 10.43, 10.99, 11.23, 10.01, 9.42, 8.53, 8.5, 7.86, 6.59, 5.01, 3.43, 1.61, 0.71, 0.54, 0.61, 0.51, 0.0, -0.57, -1.7, -2.68, -3.13, -3.13, -3.13, -3.07, -2.91, -3.39, -3.39, -3.39, -2.4, -2.4, -2.68, -2.68, -2.24, -2.24, -2.24, -1.79, -0.0, -0.63, -0.89, 0.45, 0.45, 0.45, 0.0, 0.0, 0.0, -0.63, -0.89, 0.0, 0.89, 0.45, 0.0, 0.0, 3.0, 1.84, -0.63, -1.34, 0.0, 1.03, 2.09, 0.85, 0.45, -2.63, -3.58, -3.07, -2.15, -1.88, -1.16, 0.0, 0.71, 4.0, 3.64, 4.36, 0.6, 0.0, 0.0, 0.0, 0.0, 0.0, 0.0, 5.86, 5.86, 5.86, 5.86, 5.86, 6.29, 6.53, 6.94, 6.94, 7.19, 7.59, 7.85, 7.96, 8.22, 8.87, 8.87, 8.87, 9.21, 9.82, 10.43, 11.33, 11.28, 10.88, 10.01, 8.78, 7.86, 7.27, 7.23, 6.28, 5.01, 3.16, 1.88, 1.2, 0.53, 0.51, 0.59, 0.0, -0.57, -1.6, -2.24, -2.24, -2.24, -2.6, -2.91, -3.07, -3.6, -3.39, -2.91, -2.4, -2.4, -2.6, -2.68, -2.24, -2.24, -1.79, -1.26, -0.0, -0.63, 0.0, 0.63, 1.34, 0.63, 0.0, -0.45, -0.63, -0.45, 0.45, 0.0, -0.45, 0.65, 1.47, 2.8, 1.8, 0.0, -0.0, 0.0, 0.99, 1.84, 1.74, 1.26, -0.45, -2.63, -3.13, -2.5, -1.84, -1.13, 0.0, 0.69, 1.35, 0.0, -0.89, -0.6, 0.89, 1.7, 0.6, 0.0, 0.0, 0.0, 5.86, 5.86, 5.86, 5.86, 5.86, 6.29, 6.29, 6.94, 6.94, 7.59, 7.59, 7.85, 8.23, 8.23, 8.87, 8.59, 8.87, 9.5, 10.13, 10.43, 10.43, 10.99, 11.28, 10.3, 9.37, 7.86, 7.27, 7.55, 6.64, 6.28, 5.01, 3.48, 2.23, 1.61, 1.16, 0.59, 0.61, 0.0, 0.0, -0.95, -1.34, -1.79, -1.79, -2.4, -2.91, -3.07, -2.91, -2.91, -2.4, -2.8, -2.91, -2.63, -2.8, -2.8, -2.4, -1.9, -1.9, -0.0, 0.0, 0.0, 0.6, 0.63, 0.45, 0.0, 0.45, -0.45, -0.89, -0.89, -1.34, 0.0, 1.41, 3.72, 3.72, 3.14, 2.6, 2.24, 2.24, 2.5, 2.21, 2.23, 0.0, -2.17, -2.68, -2.49, -2.53, -1.61, 0.0, 0.0, 0.0, -1.88, -1.61, 0.45, 2.4, 2.68, 1.86, 0.0, 0.0, 0.0, 5.86, 5.86, 5.86, 5.86, 5.86, 6.29, 6.29, 6.29, 6.94, 7.33, 7.59, 7.96, 8.23, 8.23, 8.59, 8.87, 8.87, 9.5, 10.13, 10.43, 10.43, 10.99, 10.99, 10.36, 9.72, 8.78, 7.86, 7.27, 6.95, 6.64, 5.69, 5.69, 5.35, 4.11, 3.48, 2.23, 1.84, 1.16, 1.2, 0.57, 0.6, 0.0, 0.45, -1.7, -2.0, -2.4, -2.4, -2.4, -2.4, -2.4, -2.91, -2.91, -3.07, -3.07, -1.86, -1.26, -2.8, -1.26, -0.0, 0.45, 0.0, 0.0, 0.89, 0.45, 0.45, -0.45, -0.45, -0.89, -1.26, 0.0, 1.27, 2.66, 4.29, 4.43, 3.6, 4.02, 4.02, 3.53, 2.5, 1.58, 0.0, -1.7, -2.4, -2.68, -2.68, -2.23, -1.13, -1.16, -2.21, -2.84, -1.76, 0.0, 2.51, 3.48, 2.53, 1.24, 0.0, 0.0, 5.64, 5.64, 5.86, 5.86, 5.86, 6.29, 6.29, 6.29, 6.94, 7.33, 7.59, 7.96, 8.23, 8.23, 8.59, 8.87, 8.87, 9.5, 10.13, 10.13, 10.43, 10.72, 10.72, 10.69, 9.77, 9.13, 7.9, 8.19, 7.27, 6.95, 6.34, 6.32, 5.69, 5.06, 4.43, 3.2, 2.48, 1.84, 1.88, 1.49, 0.99, 0.6, 0.0, 0.45, -0.89, -0.95, -1.26, -1.86, -2.4, -2.4, -2.91, -2.91, -3.07, -3.14, -2.84, -1.86, -1.9, -0.95, -0.63, -0.45, -0.63, 0.0, 0.0, 0.45, 0.45, 0.89, 0.0, 0.45, -0.6, 0.0, 0.7, 2.79, 4.65, 4.29, 2.48, 3.07, 3.51, 2.4, 1.24, 1.26, 0.0, -0.89, -2.53, -2.6, -2.91, -3.16, -3.79, -3.49, -3.14, -2.51, -2.0, 0.0, 2.66, 3.08, 2.48, 1.61, 0.53, 0.53, 5.64, 5.64, 5.64, 5.86, 5.86, 6.29, 6.29, 6.29, 6.7, 6.94, 7.33, 7.96, 7.96, 8.23, 8.59, 8.87, 8.87, 9.5, 9.82, 10.13, 10.43, 10.72, 10.4, 10.09, 9.77, 9.46, 8.53, 8.5, 7.59, 6.95, 6.34, 6.04, 6.01, 5.69, 5.35, 4.71, 3.49, 2.86, 2.23, 1.88, 1.58, 1.26, 0.6, 0.45, 0.0, -0.0, -0.8, -1.6, -2.12, -2.4, -2.91, -2.68, -3.07, -3.14, -2.84, -2.84, -1.58, -0.8, -0.95, -0.89, -1.34, -0.63, 0.0, 0.0, 0.0, 0.0, 0.0, 0.45, -0.89, -1.26, 0.0, 2.84, 6.64, 6.01, 3.7, 1.41, 0.59, 0.0, 0.57, 0.63, 0.32, 0.0, -2.6, -4.77, -3.58, -3.6, -4.27, -3.72, -2.84, -2.07, -1.13, -0.59, 0.0, 2.54, 2.04, 2.0, 1.33, 1.33, 5.64, 5.64, 5.64, 5.64, 5.86, 6.29, 6.29, 6.29, 6.7, 6.94, 7.6, 7.96, 7.96, 8.23, 8.59, 8.59, 8.87, 9.5, 9.82, 10.13, 10.43, 10.72, 10.12, 9.77, 9.46, 9.13, 8.53, 8.5, 8.19, 7.55, 6.95, 6.34, 6.32, 6.28, 5.65, 5.35, 4.71, 3.79, 2.86, 2.23, 1.88, 1.58, 1.26, 0.63, 0.45, -0.0, -0.0, -1.2, -1.7, -2.12, -2.4, -2.91, -3.07, -2.79, -2.84, -2.84, -2.23, -2.51, -1.86, -2.17, -2.68, -1.7, -0.95, -1.49, -0.89, -0.89, -0.89, -0.89, -0.89, -0.6, 0.0, 2.0, 6.64, 9.49, 7.97, 4.71, 0.66, -1.16, -0.57, 0.45, 0.45, 0.0, -2.12, -4.88, -6.14, -3.53, -3.58, -3.09, -2.4, -1.58, -0.99, -0.54, 0.0, 1.52, 1.36, 2.04, 1.94, 1.94, 5.64, 5.64, 5.64, 5.64, 5.64, 6.29, 6.29, 6.29, 6.7, 6.96, 7.22, 7.6, 8.24, 8.24, 8.59, 8.59, 9.21, 9.21, 9.82, 9.82, 9.82, 10.12, 9.8, 9.48, 9.46, 9.13, 8.82, 8.5, 8.15, 8.15, 7.55, 6.95, 6.64, 6.01, 5.69, 5.65, 5.01, 4.37, 4.07, 3.43, 2.79, 2.5, 1.58, 1.26, 0.45, 0.0, 0.0, -0.89, -1.34, -1.79, -2.12, -2.4, -2.5, -3.07, -3.14, -2.84, -3.16, -3.43, -4.27, -3.51, -3.13, -2.4, -1.86, -1.79, -0.95, -0.0, -0.89, -0.71, 0.71, 2.21, 1.35, 1.41, 3.16, 8.36, 10.75, 9.84, 4.43, 0.0, -2.4, -0.63, 0.45, 0.0, 0.0, -3.13, -5.24, -6.47, -6.72, -3.82, -3.53, -2.49, -2.12, -1.34, 0.0, 0.0, 0.67, 1.4, 1.26, 1.26, 5.64, 5.64, 5.89, 5.89, 5.89, 5.64, 6.29, 6.56, 6.56, 6.96, 6.96, 7.6, 7.6, 8.24, 8.87, 8.87, 9.21, 9.21, 9.82, 9.8, 9.8, 9.8, 9.48, 9.17, 9.13, 8.53, 8.5, 8.19, 6.95, 7.81, 7.86, 7.55, 6.64, 6.32, 6.28, 5.98, 5.59, 5.29, 4.37, 4.07, 3.43, 2.79, 2.5, 1.86, 1.6, 0.63, 0.0, -0.45, -0.89, -1.34, -1.2, -1.86, -1.9, -2.5, -2.68, -3.14, -3.35, -4.27, -5.02, -5.78, -3.95, -3.2, -1.79, -1.26, -1.24, -0.54, -0.0, 0.0, 0.88, 3.22, 1.8, 0.0, 0.7, 4.98, 10.49, 11.09, 5.72, 0.0, -1.79, -0.89, 0.45, 0.89, 1.34, 1.2, -2.24, -4.89, -6.47, -6.72, -5.75, -3.72, -2.53, -2.0, -1.2, 0.0, 0.0, 0.67, 0.64, 0.64, 5.67, 5.67, 5.89, 5.89, 5.89, 5.89, 6.31, 6.31, 6.56, 6.96, 6.96, 7.33, 7.6, 7.96, 8.58, 8.87, 9.19, 9.19, 9.5, 9.8, 9.8, 9.77, 9.48, 8.87, 8.85, 8.82, 8.5, 7.9, 7.59, 7.27, 7.55, 7.23, 6.92, 6.59, 6.28, 6.23, 5.65, 5.59, 5.29, 4.65, 4.37, 3.88, 3.35, 2.68, 2.4, 2.12, 1.34, 0.89, 0.0, 0.45, 0.45, -0.95, -1.26, -1.86, -2.23, -2.4, -2.91, -4.3, -4.77, -4.92, -4.34, -2.54, -2.4, -1.24, -1.2, -0.65, -0.0, 0.45, 1.74, 1.4, 0.0, -0.54, 0.0, 3.43, 9.74, 9.74, 1.84, -0.89, -0.0, 2.0, 2.68, 2.68, 3.13, 3.13, 3.58, 0.89, -3.13, -5.09, -5.43, -4.81, -3.16, -2.5, -1.79, -1.2, -0.57, 0.0, 0.0, 0.0, 5.67, 5.67, 5.67, 5.67, 5.89, 5.89, 6.31, 6.31, 6.31, 6.96, 6.96, 7.33, 7.6, 7.96, 8.58, 8.58, 9.48, 9.48, 9.48, 10.09, 9.77, 9.48, 9.17, 8.85, 8.53, 8.82, 8.5, 8.5, 8.82, 7.86, 6.92, 6.32, 6.59, 6.87, 6.87, 6.57, 5.88, 5.59, 5.49, 4.94, 4.65, 4.55, 3.88, 3.6, 3.32, 2.91, 2.6, 2.12, 1.34, 0.89, 0.45, 0.45, -0.0, -0.6, -1.26, -1.26, -2.12, -2.12, -3.53, -3.58, -3.13, -2.68, -2.0, -3.35, -1.24, -1.58, -1.24, -0.95, 0.0, -0.95, -1.86, -0.8, 0.76, 4.71, 9.92, 9.2, 2.4, 0.57, 2.53, 4.52, 4.77, 4.47, 4.02, 3.58, 3.58, 5.36, 3.13, -0.0, -1.9, -3.79, -3.79, -2.15, -1.86, -1.26, -0.57, 0.0, 0.0, 0.0, 5.67, 5.67, 5.67, 5.67, 5.67, 5.67, 6.31, 6.31, 6.31, 6.7, 6.96, 7.61, 7.61, 8.24, 8.24, 8.87, 9.17, 9.48, 9.48, 9.77, 9.77, 9.17, 9.13, 8.53, 8.53, 8.82, 8.82, 9.08, 9.08, 8.19, 6.92, 6.28, 6.28, 6.87, 6.87, 6.79, 6.23, 5.93, 5.59, 5.29, 5.21, 5.08, 4.8, 4.27, 4.11, 3.39, 2.91, 3.07, 2.6, 1.7, 1.34, 0.89, 0.45, -0.0, -0.0, -0.95, -0.95, -1.2, -0.89, 0.45, -2.24, -2.97, -3.39, -3.35, -3.2, -3.13, -1.79, -1.34, -0.89, -1.26, -1.61, -0.76, 2.0, 7.64, 9.92, 9.08, 5.77, 6.07, 6.32, 6.79, 5.78, 4.47, 3.98, 3.53, 3.58, 5.78, 5.67, 3.07, 1.26, -0.71, -2.41, -2.53, -1.9, -1.2, -0.59, -0.69, 0.0, 0.0, 5.67, 5.67, 5.67, 5.67, 5.67, 5.67, 6.07, 6.31, 6.31, 6.7, 6.97, 7.61, 7.61, 7.95, 8.24, 8.56, 9.17, 9.17, 9.48, 9.77, 9.46, 9.46, 8.85, 8.53, 8.82, 8.82, 8.82, 9.08, 9.37, 8.38, 7.51, 6.87, 6.28, 6.79, 6.79, 6.79, 6.79, 6.51, 5.93, 5.49, 5.21, 4.84, 4.69, 4.8, 4.6, 4.11, 3.87, 3.39, 2.91, 2.6, 2.12, 1.79, 0.89, 0.45, -0.0, -0.0, -0.0, -0.0, 0.89, 0.45, -0.0, -2.91, -4.34, -2.6, -3.04, -3.58, -3.58, -2.24, -0.89, -0.63, -0.71, 0.0, 1.6, 7.6, 9.83, 8.36, 7.12, 8.19, 9.26, 8.05, 5.78, 4.43, 3.53, 2.24, 2.17, 2.91, 3.74, 3.6, 2.91, 1.26, -0.71, -1.88, -1.9, -1.34, -0.61, -0.67, -0.69, -0.69, 5.44, 5.44, 5.92, 5.92, 5.92, 5.92, 6.33, 6.33, 6.58, 6.97, 6.97, 7.61, 7.61, 7.95, 8.24, 8.85, 9.46, 9.46, 9.46, 9.46, 9.46, 9.13, 8.53, 8.53, 8.5, 8.82, 8.82, 9.08, 8.78, 8.38, 8.08, 7.17, 6.87, 6.79, 6.79, 7.07, 7.07, 6.7, 6.15, 5.86, 5.49, 5.21, 5.08, 3.74, 4.6, 4.6, 4.6, 4.11, 3.2, 2.91, 2.4, 2.12, 1.34, 0.89, 0.89, 0.45, 0.45, -0.0, -0.0, -0.0, 0.89, -1.6, -3.9, -2.6, -3.04, -3.13, -2.97, -2.98, -1.9, -0.45, -0.6, -0.65, 0.57, 5.36, 10.26, 9.58, 7.47, 8.14, 10.01, 8.25, 4.66, 3.07, 2.17, 1.34, 1.86, 3.07, 3.6, 4.0, 4.0, 2.4, -0.0, -1.24, -1.9, -2.12, -1.24, -0.63, -1.36, -1.4, 5.69, 5.69, 5.69, 5.69, 5.69, 5.92, 6.33, 6.33, 6.33, 6.97, 6.97, 7.33, 7.33, 8.24, 8.24, 8.85, 8.85, 9.46, 9.46, 9.46, 9.13, 9.13, 8.82, 8.82, 8.5, 8.82, 8.82, 8.82, 8.45, 8.15, 8.08, 7.73, 7.44, 7.35, 6.79, 7.07, 6.7, 6.7, 6.41, 6.41, 5.86, 5.75, 5.21, 3.83, 5.09, 5.31, 4.9, 4.4, 3.88, 3.2, 2.91, 2.4, 2.12, 1.34, 1.34, 0.89, 0.89, 0.89, -0.0, 0.63, 0.63, 0.89, -0.89, -3.04, -2.54, -2.8, -3.2, -2.54, -1.79, -0.45, -0.63, -1.24, 0.0, 3.82, 10.49, 10.49, 7.67, 7.97, 8.87, 8.23, 3.78, 2.15, 1.79, 2.4, 3.07, 3.6, 4.11, 5.16, 5.64, 3.82, 1.7, -0.63, -1.86, -2.12, -2.12, -1.13, -1.35, -1.36, 5.69, 5.69, 5.69, 5.69, 5.69, 5.69, 6.08, 6.33, 6.33, 6.71, 6.71, 7.33, 7.33, 8.24, 8.24, 8.53, 8.85, 9.13, 9.13, 9.13, 9.42, 9.08, 8.82, 8.5, 8.5, 8.82, 8.82, 8.5, 8.19, 8.15, 7.81, 8.08, 8.0, 7.44, 7.35, 7.61, 7.23, 6.95, 6.95, 6.41, 6.03, 5.75, 5.37, 4.93, 4.8, 5.4, 5.47, 4.55, 4.0, 3.35, 3.07, 2.91, 2.6, 2.12, 1.79, 1.34, 1.34, 0.89, 0.89, 0.89, 0.63, 0.63, -0.0, -0.89, -2.8, -2.8, -2.68, -2.68, -2.24, -0.89, 0.45, -1.0, 0.0, 2.68, 8.37, 9.36, 7.56, 6.94, 8.3, 7.54, 3.72, 2.24, 2.91, 4.0, 4.52, 5.2, 5.2, 5.64, 6.07, 5.31, 2.68, 0.89, -0.45, -1.34, -1.79, -1.24, -0.59, -1.35, 5.69, 5.69, 5.69, 5.69, 5.69, 5.69, 6.08, 6.08, 6.33, 6.98, 6.98, 7.61, 7.61, 7.93, 8.24, 8.53, 8.53, 9.42, 9.42, 9.42, 9.42, 8.82, 8.5, 8.5, 8.5, 8.82, 8.5, 8.78, 7.86, 8.15, 7.81, 8.08, 8.08, 8.0, 7.64, 7.9, 7.61, 7.23, 6.95, 6.56, 6.41, 6.03, 5.49, 5.75, 5.21, 5.05, 5.08, 4.37, 3.64, 3.72, 3.6, 3.07, 2.91, 2.4, 2.17, 2.12, 1.79, 1.34, 1.34, 1.34, 1.34, 0.63, 0.0, 1.34, -1.79, -2.24, -1.79, -3.13, -2.54, -0.89, -0.45, 0.0, 0.0, 1.84, 2.41, 6.61, 8.05, 8.01, 7.47, 5.43, 2.49, 2.4, 3.72, 5.86, 6.64, 6.11, 6.11, 5.77, 5.77, 5.77, 4.41, 2.24, 0.63, 0.0, -1.2, -1.26, -0.65, -0.65, 5.69, 5.69, 5.69, 5.69, 5.69, 5.95, 6.34, 6.34, 6.34, 6.98, 6.98, 7.32, 7.61, 7.61, 8.24, 8.53, 8.82, 9.42, 9.42, 9.42, 9.08, 8.82, 8.5, 8.5, 8.5, 8.82, 8.78, 8.45, 7.86, 8.15, 7.55, 7.55, 8.08, 7.73, 8.0, 8.0, 7.9, 7.76, 7.23, 7.48, 6.95, 6.41, 6.03, 6.03, 6.03, 6.13, 5.47, 4.0, 3.72, 3.72, 3.35, 3.2, 3.07, 2.91, 2.4, 2.6, 2.12, 1.79, 1.79, 1.34, 1.34, 0.89, 0.45, 0.89, -1.79, -1.79, -2.24, -2.24, -0.89, -0.89, -0.45, 0.0, 0.0, 0.63, 1.84, 3.91, 6.25, 7.47, 5.6, 2.79, 1.79, 3.14, 6.25, 7.33, 7.28, 6.55, 6.21, 5.32, 5.36, 5.36, 5.36, 3.13, 1.7, 0.57, 0.0, 0.0, 0.0, 0.0, 5.69, 5.69, 5.69, 5.95, 5.95, 5.95, 6.34, 6.34, 6.34, 6.7, 6.98, 7.32, 7.61, 7.61, 7.93, 8.53, 8.82, 9.08, 9.42, 9.08, 9.08, 8.5, 8.5, 8.5, 8.5, 8.5, 8.78, 8.45, 7.86, 8.15, 7.55, 7.55, 7.51, 7.51, 7.73, 8.0, 8.0, 7.9, 7.9, 7.61, 7.23, 6.95, 6.41, 6.41, 6.41, 6.28, 6.0, 5.08, 4.27, 3.88, 3.35, 3.6, 3.07, 3.07, 2.91, 2.8, 2.6, 2.12, 1.7, 1.79, 1.79, 1.34, 0.89, 0.45, -1.34, -1.79, -2.68, -2.24, -0.89, -0.89, -0.45, 0.0, 0.0, 1.41, 2.18, 3.7, 5.21, 5.09, 3.48, 3.07, 3.79, 6.98, 8.11, 7.56, 6.85, 6.11, 6.55, 5.77, 5.32, 4.92, 4.92, 3.58, 2.68, 0.54, 0.0, 0.53, 0.53, 0.53, 5.69, 5.69, 5.69, 5.7, 5.7, 5.95, 6.34, 6.34, 6.34, 6.7, 6.98, 7.32, 7.32, 7.61, 7.93, 7.93, 8.82, 9.08, 9.08, 9.08, 9.37, 8.5, 8.5, 8.5, 8.5, 8.78, 8.78, 8.45, 7.86, 8.15, 7.55, 7.55, 7.23, 7.51, 7.51, 8.0, 8.0, 8.0, 7.9, 7.9, 7.61, 7.23, 7.07, 6.95, 6.95, 6.56, 6.28, 5.6, 5.08, 4.55, 4.27, 3.72, 3.35, 3.07, 3.07, 2.8, 2.4, 2.4, 1.86, 2.12, 1.7, 1.79, 1.34, 0.89, 1.34, -2.24, -3.13, -1.34, -0.89, -0.89, -0.45, 0.0, 0.59, 1.41, 2.8, 2.0, 2.51, 3.6, 4.24, 5.43, 7.82, 9.21, 9.05, 7.63, 6.58, 5.67, 5.67, 7.01, 6.22, 4.92, 4.47, 2.68, 1.86, 0.65, 0.61, 0.7, 0.7, 0.7, 5.69, 5.69, 5.7, 5.7, 5.7, 5.7, 6.08, 6.34, 6.34, 6.7, 6.7, 6.98, 7.32, 7.61, 7.93, 7.93, 8.82, 8.82, 9.08, 9.08, 9.37, 8.78, 8.5, 8.5, 8.5, 8.78, 8.78, 8.45, 8.19, 7.86, 8.15, 7.55, 7.55, 7.51, 7.51, 7.51, 8.0, 8.0, 8.0, 7.9, 7.72, 7.35, 7.61, 7.23, 7.07, 6.95, 6.41, 6.28, 5.75, 5.47, 4.93, 4.4, 3.88, 3.35, 3.35, 2.68, 2.5, 2.15, 2.4, 1.86, 1.86, 1.6, 1.34, 0.63, 0.0, -1.79, -2.68, -0.89, -0.89, -0.89, -0.6, 0.0, 0.65, 1.33, 1.9, 1.34, 1.79, 3.58, 6.07, 5.3, 6.05, 8.65, 9.83, 8.24, 7.01, 5.67, 6.22, 7.12, 6.71, 5.81, 3.13, 2.63, 1.86, 0.54, 0.7, 1.41, 1.41, 1.41, 5.45, 5.45, 5.7, 5.7, 5.7, 5.7, 6.08, 6.08, 6.34, 6.7, 6.7, 6.98, 7.32, 7.32, 8.22, 8.22, 8.22, 8.82, 8.82, 9.08, 9.37, 8.78, 8.78, 8.5, 8.5, 8.78, 8.78, 8.45, 8.19, 7.86, 8.15, 7.55, 7.55, 7.55, 7.51, 7.51, 7.8, 7.8, 7.64, 7.44, 7.72, 7.72, 7.35, 7.61, 7.61, 7.23, 6.95, 6.41, 6.28, 5.75, 5.37, 5.08, 4.55, 4.4, 3.35, 3.6, 3.07, 2.5, 2.5, 2.15, 1.86, 1.86, 1.6, 1.2, 0.0, -1.34, -2.24, -1.79, -1.79, -0.6, -0.6, -0.57, 0.0, 0.0, 0.0, 0.63, 1.7, 3.51, 4.74, 3.0, 3.79, 8.24, 10.75, 9.18, 8.48, 7.04, 6.71, 6.26, 6.26, 4.02, 3.58, 3.07, 2.4, 0.71, 0.0, 0.7, 0.7, 0.7, 5.7, 5.7, 5.7, 5.7, 5.7, 5.7, 6.08, 6.08, 6.34, 6.34, 6.7, 6.98, 7.6, 7.6, 8.22, 8.22, 8.22, 8.5, 8.82, 9.08, 9.08, 8.78, 8.5, 8.5, 8.5, 8.5, 8.78, 8.45, 8.19, 7.86, 7.86, 7.88, 7.55, 7.55, 7.23, 7.51, 7.51, 7.8, 7.44, 7.44, 7.72, 7.35, 7.35, 7.35, 7.61, 7.23, 7.48, 6.95, 6.41, 6.28, 6.28, 6.0, 5.6, 5.31, 4.4, 3.88, 3.6, 3.6, 3.07, 2.5, 1.9, 1.58, 1.58, 1.26, 0.63, 0.89, -2.24, -1.9, -2.68, -0.63, -0.6, -1.26, -1.49, -1.34, -0.89, -0.0, 1.2, 1.9, 2.3, 2.88, 3.48, 7.03, 9.6, 9.14, 9.18, 7.94, 5.81, 4.47, 4.47, 4.92, 4.92, 3.97, 2.8, 1.24, 0.65, 0.0, 0.0, 0.0, 5.7, 5.7, 5.7, 5.7, 5.7, 5.7, 6.08, 6.08, 6.08, 6.34, 6.98, 6.98, 7.6, 7.6, 7.9, 8.22, 8.22, 8.5, 8.82, 8.82, 8.82, 8.5, 8.5, 8.5, 8.82, 8.5, 8.78, 8.78, 8.19, 8.19, 7.86, 7.86, 7.55, 7.55, 7.55, 7.51, 7.51, 7.51, 7.44, 7.44, 7.44, 7.35, 7.35, 7.35, 7.61, 7.61, 7.23, 6.95, 6.56, 6.67, 6.28, 6.28, 6.0, 5.6, 5.31, 4.8, 4.4, 3.88, 3.35, 2.79, 2.21, 1.9, 1.9, 1.26, 0.95, 0.0, -1.79, -2.54, -2.97, -2.24, -0.45, 0.0, -2.12, -1.79, -1.34, 0.45, -0.0, 0.57, 1.2, 2.53, 3.45, 4.46, 6.44, 8.63, 8.97, 7.6, 3.98, 3.53, 3.98, 4.47, 5.36, 5.31, 3.82, 2.5, 1.4, 0.0, 0.0, 0.0, 5.29, 5.29, 5.7, 5.7, 5.7, 5.7, 5.7, 6.08, 6.08, 6.63, 6.98, 6.98, 7.6, 7.6, 7.6, 8.22, 8.22, 8.5, 8.5, 8.82, 8.82, 8.5, 8.82, 8.82, 8.82, 8.82, 8.5, 8.5, 8.19, 8.19, 7.86, 7.86, 7.59, 7.55, 7.55, 7.23, 7.51, 7.51, 7.51, 7.44, 7.44, 7.09, 7.15, 7.15, 7.35, 7.61, 7.23, 6.7, 6.95, 6.41, 6.41, 6.28, 5.75, 5.47, 5.08, 5.08, 4.8, 4.4, 4.27, 3.72, 3.14, 2.53, 1.61, 1.24, 0.8, 0.0, -1.58, -3.04, -2.68, -1.34, 0.45, 0.45, 0.89, -1.34, -1.79, -1.34, -0.89, -0.63, -0.0, 1.49, 2.4, 2.86, 3.14, 6.79, 9.36, 4.88, 3.82, 2.68, 2.68, 3.82, 4.77, 5.64, 4.52, 3.83, 1.88, 0.54, 0.54, 0.54, 5.29, 5.29, 5.7, 5.7, 5.7, 5.7, 5.7, 6.08, 6.08, 6.63, 6.98, 6.98, 7.6, 7.6, 7.6, 8.22, 8.22, 8.5, 8.5, 8.82, 8.5, 8.5, 8.82, 8.82, 8.82, 8.82, 8.5, 8.5, 8.22, 8.19, 8.19, 7.86, 7.59, 7.55, 7.55, 7.55, 7.23, 7.51, 7.51, 7.17, 7.44, 7.21, 6.87, 7.15, 7.15, 7.15, 6.79, 7.07, 6.51, 6.15, 6.41, 5.86, 5.86, 5.21, 5.21, 4.65, 4.93, 4.55, 4.55, 4.0, 3.88, 3.14, 2.53, 1.61, 0.71, 0.0, -0.8, -1.9, -2.23, -1.86, -1.7, 0.0, 1.34, 1.79, -0.89, -1.79, -2.24, -1.79, -0.89, 0.45, 1.7, 2.15, 2.8, 4.92, 8.46, 5.33, 3.82, 2.15, 1.2, 2.23, 3.72, 5.6, 5.43, 3.14, 1.9, 0.0, 0.0, 0.0, 5.29, 5.29, 5.29, 5.7, 5.7, 5.7, 5.7, 6.08, 6.08, 6.34, 6.7, 6.7, 7.32, 7.32, 7.6, 8.22, 8.22, 8.22, 8.5, 8.5, 8.5, 8.5, 8.24, 8.53, 8.82, 8.82, 8.5, 8.5, 8.22, 8.19, 8.19, 7.86, 7.59, 7.59, 7.55, 7.55, 7.23, 6.95, 7.25, 6.92, 6.92, 7.21, 6.87, 6.87, 6.87, 7.15, 6.79, 6.57, 6.23, 6.51, 5.93, 5.59, 5.59, 5.29, 4.94, 4.71, 4.65, 4.65, 4.29, 4.55, 4.37, 3.64, 3.14, 2.21, 1.2, 0.0, 0.0, -0.65, -1.4, -2.21, -2.4, -1.26, 0.0, 1.86, 0.63, -0.89, -2.24, -2.24, -1.34, 0.0, 0.89, 1.7, 2.63, 9.36, 8.47, 6.67, 3.98, 1.7, 0.0, 1.16, 2.84, 4.73, 5.09, 2.53, 0.6, -0.89, -0.89, -0.89, 5.29, 5.29, 5.29, 5.7, 5.7, 5.7, 5.7, 6.08, 6.34, 6.34, 6.7, 6.98, 6.98, 7.32, 7.32, 7.93, 8.22, 8.22, 8.22, 8.5, 8.5, 8.5, 8.22, 7.93, 8.22, 8.22, 8.22, 8.22, 8.22, 7.9, 8.19, 7.86, 7.59, 7.59, 7.27, 7.55, 7.55, 6.95, 6.95, 6.95, 6.92, 6.92, 6.87, 6.87, 6.87, 6.87, 6.79, 6.57, 6.23, 5.98, 5.65, 5.93, 5.01, 5.01, 4.71, 4.71, 4.37, 4.11, 4.65, 4.65, 4.29, 4.0, 3.43, 2.84, 1.84, 1.16, 0.59, 0.0, -0.65, -0.99, -1.2, -1.26, 0.0, 0.54, 0.57, 0.0, -1.7, -2.17, -0.95, 0.0, 0.0, 0.89, 4.47, 8.46, 8.05, 7.15, 4.02, 1.2, 0.0, 0.54, 2.23, 3.78, 4.46, 1.9, 0.0, -0.89, -0.89, -0.89, 5.06, 5.06, 5.29, 5.29, 5.7, 5.7, 5.7, 6.08, 6.34, 6.34, 6.7, 6.98, 6.98, 7.32, 7.32, 7.61, 7.93, 8.22, 8.22, 8.22, 8.5, 8.5, 8.22, 8.22, 8.22, 8.22, 8.22, 8.22, 8.22, 7.9, 7.9, 7.9, 7.59, 7.59, 7.59, 7.27, 7.55, 6.95, 6.95, 6.95, 6.64, 6.92, 6.92, 6.59, 6.87, 6.87, 6.28, 6.28, 6.23, 5.98, 5.65, 5.65, 5.01, 4.74, 4.74, 4.43, 4.43, 4.11, 4.11, 4.11, 4.41, 4.07, 4.0, 3.43, 2.51, 1.84, 1.27, 1.27, 0.0, 0.0, 0.0, 0.0, 0.0, 0.0, 0.0, 0.0, -1.24, -1.61, -0.61, -0.54, -0.57, 0.0, 3.53, 6.26, 6.71, 5.81, 3.13, -0.0, -0.4, 0.0, 1.61, 3.35, 3.07, 1.26, 0.45, -0.89, -0.89, -0.89, 5.06, 5.06, 5.06, 5.29, 5.7, 5.7, 5.7, 6.08, 6.34, 6.34, 6.7, 6.98, 6.98, 7.32, 7.32, 7.61, 7.93, 7.93, 8.22, 8.22, 8.22, 8.22, 8.22, 8.22, 8.22, 8.22, 8.22, 8.22, 8.22, 7.9, 7.6, 7.6, 7.59, 7.59, 7.59, 7.27, 7.27, 7.27, 6.95, 6.95, 6.34, 6.34, 6.64, 6.59, 6.59, 6.62, 6.62, 6.28, 6.28, 5.69, 5.65, 5.37, 5.35, 4.74, 4.74, 4.43, 4.12, 3.83, 4.11, 4.11, 4.11, 4.07, 4.07, 3.73, 3.16, 2.23, 1.8, 1.8, 1.8, 1.26, 0.45, 0.0, 0.45, -0.8, -0.6, 0.0, 0.0, -1.13, -1.27, -1.13, -1.16, 0.53, 2.21, 3.82, 3.97, 3.39, 1.79, -0.57, -0.54, -0.0, 0.63, 2.6, 3.07, 1.7, 0.45, -0.63, -0.63, -0.63, 5.06, 5.06, 5.06, 5.29, 5.7, 5.7, 5.7, 6.08, 6.34, 6.34, 6.7, 6.98, 6.98, 7.32, 7.32, 7.61, 7.61, 7.93, 8.22, 8.22, 8.22, 8.22, 8.22, 8.22, 8.22, 8.22, 8.22, 8.22, 7.9, 7.6, 7.6, 7.3, 7.59, 7.59, 7.59, 7.27, 7.27, 6.97, 6.95, 6.95, 6.34, 6.34, 6.34, 6.32, 6.32, 6.32, 6.32, 6.28, 6.01, 5.69, 5.37, 5.06, 5.06, 4.74, 4.74, 4.43, 4.12, 4.12, 3.83, 3.83, 4.11, 3.49, 3.49, 4.07, 3.48, 2.86, 2.23, 2.48, 2.23, 1.24, 0.6, 0.0, 0.0, -1.26, -1.26, 0.0, 0.63, 0.0, -1.23, -1.35, -0.57, 0.0, 1.13, 2.84, 3.45, 2.53, 0.95, -0.0, -0.54, -0.0, -0.0, 0.45, 1.79, 1.79, -0.0, -0.0, -0.0, -0.0, 5.06, 5.06, 5.06, 5.29, 5.7, 5.7, 5.7, 6.34, 6.34, 6.34, 6.7, 6.98, 6.98, 6.98, 7.32, 7.32, 7.61, 7.61, 7.93, 8.22, 8.22, 8.22, 8.22, 8.22, 8.22, 8.22, 8.22, 8.22, 7.6, 7.6, 7.6, 7.3, 7.3, 7.59, 7.59, 7.27, 6.97, 6.97, 6.95, 6.95, 6.34, 6.34, 6.34, 6.04, 6.32, 6.32, 6.32, 6.28, 6.01, 5.69, 5.69, 5.06, 4.75, 4.75, 4.45, 4.74, 4.12, 4.12, 4.12, 3.49, 3.49, 3.49, 3.49, 3.79, 3.79, 3.2, 2.86, 2.48, 2.48, 1.2, 0.54, 0.0, 0.0, -1.26, -1.26, -0.57, 0.0, 0.57, -0.66, -1.35, -0.63, 0.0, 0.57, 1.8, 2.51, 2.15, 1.24, 0.45, -0.0, -0.0, -0.57, -0.0, 0.45, 0.89, -0.0, -0.0, -0.0, -0.0, 5.06, 5.06, 5.29, 5.29, 5.7, 5.7, 5.7, 5.95, 6.34, 6.34, 6.34, 6.98, 6.98, 6.98, 6.98, 7.32, 7.61, 7.61, 7.61, 7.93, 7.93, 8.22, 7.93, 7.93, 7.93, 8.22, 8.22, 7.91, 7.6, 7.6, 7.6, 7.3, 7.3, 7.3, 7.59, 6.97, 6.97, 6.97, 6.67, 6.95, 6.34, 6.34, 6.34, 6.04, 6.32, 6.32, 6.32, 6.01, 6.01, 5.69, 5.38, 5.37, 4.75, 4.75, 4.75, 4.45, 3.84, 3.84, 4.12, 3.76, 3.49, 3.49, 3.22, 3.78, 4.11, 3.49, 2.86, 2.22, 2.86, 2.44, 1.76, 0.0, 0.0, -0.4, -0.45, -0.6, 0.0, 0.0, -0.54, -1.27, -1.27, -0.57, 0.0, 1.27, 2.07, 1.84, 1.61, 1.26, 0.89, -0.0, -0.0, -0.63, -0.45, -0.0, -0.0, -0.0, -0.0, -0.0, 5.29, 5.29, 5.29, 5.29, 5.7, 5.7, 5.7, 5.95, 6.34, 6.34, 6.34, 6.98, 6.98, 6.98, 6.98, 7.32, 7.61, 7.61, 7.61, 7.61, 7.93, 7.93, 7.93, 7.93, 7.93, 7.93, 7.93, 7.6, 7.6, 7.6, 7.6, 7.3, 7.3, 7.3, 7.28, 6.97, 6.97, 6.67, 6.67, 6.95, 6.34, 6.34, 6.34, 6.04, 6.32, 6.32, 6.32, 6.01, 6.01, 5.69, 5.38, 5.08, 4.75, 4.75, 4.75, 4.45, 4.12, 3.84, 3.84, 3.84, 3.76, 3.08, 3.08, 3.49, 3.49, 3.78, 3.12, 2.86, 2.86, 2.86, 1.76, 0.0, 0.0, 0.0, -0.32, -0.45, -0.6, 0.0, -0.57, -1.16, -1.27, -0.57, 0.0, 1.41, 2.07, 1.84, 1.88, 1.9, 2.17, 1.34, 0.45, 0.45, -0.32, -0.0, -0.32, -0.0, -0.0, -0.0, 5.29, 5.29, 5.29, 5.29, 5.7, 5.7, 5.7, 5.7, 6.34, 6.34, 6.34, 6.34, 6.98, 6.98, 6.98, 6.98, 7.61, 7.61, 7.61, 7.61, 7.61, 7.61, 7.93, 7.93, 7.93, 7.93, 7.61, 7.6, 7.6, 7.6, 7.6, 7.3, 6.98, 6.98, 6.97, 6.97, 6.97, 6.67, 6.67, 6.65, 6.34, 6.34, 6.34, 5.72, 5.72, 6.01, 5.71, 5.71, 6.01, 5.69, 5.08, 5.08, 4.75, 4.47, 4.75, 4.75, 4.12, 4.12, 4.12, 3.84, 3.47, 3.22, 2.82, 3.08, 3.49, 3.49, 3.49, 2.84, 2.86, 3.12, 2.44, 1.23, 0.59, 0.45, 0.45, -0.45, -0.95, -0.6, -0.57, -0.61, 0.0, 0.0, 0.0, 0.63, 2.0, 2.07, 2.53, 2.5, 2.63, 2.6, 1.79, 0.89, 0.45, 0.45, 0.0, 0.0, 0.0, 0.0, 5.29, 5.29, 5.29, 5.29, 5.7, 5.7, 5.7, 5.7, 6.34, 6.34, 6.34, 6.34, 6.98, 6.98, 6.98, 6.98, 7.61, 7.61, 7.61, 7.61, 7.61, 7.61, 7.93, 7.93, 7.93, 7.93, 7.61, 7.6, 7.6, 7.6, 7.6, 7.3, 6.98, 6.98, 6.97, 6.97, 6.97, 6.67, 6.67, 6.65, 6.34, 6.34, 6.34, 5.72, 5.72, 6.01, 5.71, 5.71, 6.01, 5.69, 5.08, 5.08, 4.75, 4.47, 4.75, 4.75, 4.12, 4.12, 4.12, 3.84, 3.47, 3.22, 2.82, 3.08, 3.49, 3.49, 3.49, 2.84, 2.86, 3.12, 2.44, 1.23, 0.59, 0.45, 0.45, -0.45, -0.6, -0.6, -0.57, -0.61, 0.0, 0.0, 0.0, 0.7, 2.2, 2.3, 2.53, 2.86, 3.32, 3.07, 3.07, 2.17, 1.79, 1.34, 1.34, 0.89, 0.89, 0.89]}, {"header": {"dx": 0.06612293990616946, "dy": 0.0552356325346848, "nx": 98, "ny": 59, "la1": 35.046912555036876, "la2": 31.78801023549047, "lo1": -121.43107172385933, "lo2": -114.95102361305473, "refTime": "2026040714", "parameterCategory": 1, "parameterNumber": 3}, "data": [-10.3, -9.76, -10.02, -10.02, -9.63, -8.96, -8.68, -8.0, -7.2, -6.28, -5.75, -4.65, -2.5, -1.7, -1.7, -2.24, -2.86, -2.0, -1.83, -0.96, -0.0, 1.03, 2.73, 2.73, 3.48, 3.14, 2.53, 1.88, 1.2, 1.24, 0.57, 0.4, -0.0, 0.0, 0.0, 0.0, 0.0, 0.0, 0.45, 0.8, 1.34, 0.8, 0.0, -1.83, -4.66, -6.77, -8.86, -10.05, -10.8, -8.16, -0.6, 1.34, 1.86, 2.5, 3.84, 4.46, 4.11, 3.64, 3.33, 2.47, 0.71, -1.7, -1.24, -0.0, 1.2, 1.9, 2.07, 2.29, 2.4, 2.28, 2.21, 0.77, 0.0, 0.0, 0.0, 0.74, 0.73, 0.0, 0.0, -0.0, 1.2, 1.2, 0.65, -0.0, -0.0, -0.0, -0.45, -0.45, -0.71, -2.0, -4.46, -6.01, -6.39, -6.06, -5.72, -4.46, -3.51, -2.24, -10.3, -10.3, -10.16, -10.02, -9.63, -9.1, -8.82, -8.15, -7.48, -7.2, -6.28, -3.45, -2.5, -1.58, -1.26, -1.6, -2.24, -1.9, -1.49, -1.94, -1.96, -0.0, 0.88, 2.53, 3.16, 3.14, 2.53, 1.88, 0.61, -0.0, 0.65, 0.54, 0.57, 0.95, 0.89, 0.95, 0.0, 0.0, 0.0, 0.0, 0.0, -0.71, -3.22, -6.58, -9.48, -11.38, -11.92, -11.92, -10.34, -1.88, 1.79, 2.12, 2.5, 3.49, 4.46, 4.46, 4.81, 4.65, 3.79, 3.09, 2.4, 0.0, -0.0, 1.34, 1.86, 2.21, 2.2, 2.47, 2.26, 2.47, 2.21, 1.52, 0.0, -0.7, -0.66, 0.0, 0.74, 0.0, 0.0, -0.0, 1.2, 1.2, 0.65, -0.0, -0.0, -0.0, -0.45, -0.45, -0.71, -2.0, -4.46, -6.01, -6.39, -6.06, -5.72, -4.46, -3.51, -2.24, -10.3, -10.3, -10.55, -10.16, -10.02, -9.63, -9.35, -8.68, -8.0, -7.48, -6.8, -6.28, -3.45, -2.5, -1.58, -1.26, -1.9, -2.0, -2.15, -2.07, -1.94, -2.99, -2.21, -0.0, 0.79, 2.51, 2.79, 2.53, 1.16, -0.0, -0.59, -0.0, 0.51, 1.49, 2.24, 1.58, 1.16, 0.0, -0.61, -1.2, -2.21, -5.69, -9.9, -13.14, -14.76, -15.12, -14.42, -11.49, -2.5, 2.12, 2.68, 2.8, 2.86, 4.46, 4.66, 4.84, 4.81, 4.65, 4.03, 3.09, 3.09, 1.47, 1.49, 2.5, 3.14, 3.79, 3.64, 3.79, 4.46, 4.5, 3.78, 2.28, 0.0, -1.41, -1.84, -1.55, -0.78, 0.0, -0.6, -0.0, -0.0, -0.0, -0.0, -0.57, -0.54, -0.54, -0.6, -0.89, -1.61, -4.03, -5.28, -6.58, -7.68, -7.06, -4.46, -2.5, -2.4, -2.17, -10.55, -10.55, -10.55, -10.55, -10.16, -10.02, -9.63, -8.96, -8.28, -8.0, -7.48, -6.8, -4.4, -3.07, -2.23, -1.9, -1.88, -1.88, -1.86, -1.9, -1.8, -1.66, -3.17, -3.06, -0.71, 0.79, 1.84, 2.5, 1.58, -0.0, -2.0, -2.11, -1.35, -0.61, 0.0, 0.0, 0.0, -0.88, -3.2, -5.59, -8.6, -12.52, -14.13, -14.51, -13.76, -12.87, -10.91, -2.5, 2.17, 3.13, 3.32, 2.86, 3.83, 4.46, 5.43, 5.09, 4.43, 4.65, 3.69, 2.99, 2.4, 2.2, 2.98, 4.46, 5.46, 5.43, 4.65, 5.69, 6.95, 6.87, 6.09, 4.01, 1.58, -0.61, -3.07, -4.46, -3.6, -2.31, -1.26, -0.61, -0.65, -0.6, -0.57, -1.16, -0.7, -0.0, -0.0, -1.2, -3.07, -5.28, -6.2, -6.53, -6.39, -3.49, -0.95, 0.0, -0.71, -1.2, -10.55, -10.55, -10.55, -10.55, -10.55, -10.16, -9.63, -9.35, -8.68, -8.28, -8.0, -7.08, -4.4, -3.32, -3.32, -2.86, -2.53, -2.84, -2.5, -2.4, -1.83, -0.95, -0.0, -1.07, -1.49, -1.01, -0.0, -0.0, -0.0, -0.0, -1.9, -3.43, -6.64, -7.07, -5.81, -5.94, -5.6, -6.32, -9.23, -12.16, -13.15, -11.52, -8.93, -5.38, -4.6, -4.5, -2.04, 1.2, 2.5, 3.22, 2.84, 3.49, 3.84, 4.8, 5.09, 4.74, 4.74, 4.36, 4.71, 3.7, 2.31, 2.29, 4.46, 5.82, 6.06, 5.3, 5.37, 5.37, 7.02, 7.59, 6.09, 5.4, 4.8, 2.2, -0.54, -4.3, -6.07, -3.91, -1.4, -1.2, -1.84, -1.88, -1.84, -1.47, -1.49, -1.9, -2.17, -2.53, -6.32, -6.79, -5.38, -4.56, -2.86, -0.32, 0.63, 0.0, -0.61, -1.49, -10.55, -10.55, -10.55, -10.55, -10.55, -10.55, -10.16, -9.88, -9.35, -8.68, -8.0, -7.31, -4.0, -3.74, -3.2, -3.45, -3.83, -4.22, -4.46, -4.02, -3.9, -4.5, -3.35, -2.09, -1.98, -3.2, -2.99, -2.53, -2.4, -2.24, -0.95, -1.34, -3.82, -10.01, -12.05, -11.15, -10.49, -10.48, -11.87, -13.14, -12.29, -9.4, -3.48, -1.55, -0.76, -1.54, -0.75, 0.0, 1.41, 2.07, 2.84, 3.49, 4.09, 4.46, 4.12, 4.01, 3.64, 3.64, 3.91, 3.11, 2.23, 2.98, 4.81, 5.43, 5.37, 5.3, 5.37, 4.43, 5.09, 4.71, 3.78, 3.85, 5.41, 5.41, 2.26, -1.4, -3.74, -3.07, -0.99, -1.26, -2.51, -3.48, -4.46, -3.72, -4.46, -6.22, -7.45, -7.03, -7.02, -6.32, -5.37, -4.65, -1.7, -0.0, -0.63, -1.88, -2.88, -2.88, -10.55, -10.55, -10.55, -10.55, -10.55, -10.55, -10.16, -10.02, -9.48, -9.2, -8.51, -7.81, -4.0, -2.8, -4.4, -3.2, -3.83, -4.84, -6.7, -6.13, -3.07, -2.48, -5.49, -7.59, -7.28, -7.37, -8.8, -8.79, -7.74, -3.82, -1.79, 0.0, -0.6, -4.47, -10.28, -12.07, -12.05, -11.76, -9.88, -9.27, -9.75, -10.23, -10.7, -10.04, -8.66, -6.1, -3.16, -0.74, 0.66, 1.99, 2.95, 3.14, 4.46, 4.12, 3.48, 2.98, 2.88, 2.88, 2.26, 2.28, 2.31, 2.4, 2.79, 3.16, 3.45, 4.46, 4.16, 2.98, 1.8, 1.45, 0.77, 0.77, 1.44, 0.78, 0.74, 0.0, -0.61, -0.6, 0.0, -1.2, -4.24, -6.79, -7.28, -7.71, -9.36, -10.71, -11.06, -9.11, -6.94, -6.07, -6.32, -3.82, -0.61, -0.0, -2.24, -3.49, -4.56, -3.9, -10.55, -10.55, -10.55, -10.55, -10.55, -10.55, -10.55, -10.16, -9.88, -9.71, -9.01, -8.48, -5.59, -2.86, -3.22, -2.84, -3.48, -4.43, -5.06, -4.36, 0.0, 1.84, -0.6, -4.73, -8.63, -9.75, -10.28, -10.38, -8.34, -6.18, -3.22, -3.04, -3.04, -4.57, -8.71, -11.15, -12.05, -10.96, -10.16, -7.28, -4.15, -7.81, -12.58, -12.72, -8.8, -3.58, -2.07, -0.66, 0.63, 2.16, 1.84, 3.49, 4.46, 4.11, 4.01, 2.88, 3.11, 2.35, 1.55, 1.58, 1.55, 1.27, 1.2, 2.6, 3.13, 3.07, 2.88, 1.47, 0.0, 0.0, 0.0, 0.0, -1.54, -2.95, -3.02, -0.65, 0.67, 2.4, 1.52, 0.0, -3.14, -7.12, -8.02, -8.94, -10.7, -11.45, -10.05, -6.66, -3.97, -4.24, -4.02, -2.07, -0.76, -1.88, -2.68, -4.46, -5.3, -4.74, -10.55, -10.55, -10.55, -10.55, -10.55, -10.55, -10.55, -10.55, -10.4, -10.0, -9.71, -9.7, -8.67, -8.56, -6.8, -4.84, -5.15, -5.43, -4.01, -2.53, 0.0, 2.16, 1.47, -0.61, -3.13, -3.51, -4.15, -8.0, -8.75, -7.64, -9.6, -12.52, -12.96, -12.35, -10.62, -9.72, -10.52, -10.08, -4.57, -1.26, 0.0, -1.24, -2.21, -1.6, -0.0, 0.6, -0.45, 0.0, 0.53, 2.53, 4.29, 3.49, 4.12, 4.01, 3.9, 3.79, 2.9, 3.09, 2.18, 1.58, 1.49, 0.0, 0.89, 3.07, 3.13, 2.5, 2.29, 1.52, 0.0, -0.7, -0.78, -1.36, -3.19, -3.47, -2.76, -0.78, 0.0, 0.79, 0.0, 0.67, -0.7, -4.92, -5.81, -7.15, -8.38, -8.55, -6.85, -3.13, -1.2, -1.24, -1.27, -0.61, -1.76, -2.86, -3.07, -4.81, -5.3, -4.74, -10.55, -10.55, -10.55, -10.55, -10.55, -10.55, -10.68, -10.68, -10.55, -10.4, -10.4, -10.91, -10.11, -11.28, -10.6, -9.97, -10.43, -10.43, -9.75, -8.37, -6.4, -3.6, -2.15, -1.6, -1.49, -1.2, -2.12, -3.48, -8.75, -11.13, -12.52, -11.13, -8.05, -6.71, -9.39, -9.83, -7.4, -2.4, 0.0, 1.79, 1.58, 0.54, 0.0, 0.89, 1.7, 1.49, 0.95, 0.63, 1.34, 3.58, 3.32, 2.53, 2.98, 2.8, 3.79, 3.91, 3.8, 3.15, 2.12, 1.44, 0.73, 0.0, 1.79, 3.51, 3.13, 2.86, 2.29, 1.98, 0.66, -0.7, -1.52, -2.7, -2.76, -2.71, -1.36, -1.4, -2.35, -2.18, -2.01, -0.68, 0.0, -1.41, -3.58, -3.53, -3.39, -3.14, -2.51, -1.2, 0.63, 0.57, -0.0, -1.13, -2.53, -3.32, -3.53, -4.12, -5.06, -4.46, -10.55, -10.55, -10.55, -10.55, -10.55, -10.55, -10.68, -11.08, -11.08, -11.08, -11.08, -11.08, -10.83, -10.4, -9.75, -11.23, -12.8, -13.88, -14.0, -14.11, -12.42, -9.36, -3.82, -2.5, -1.86, -0.89, -0.89, -0.95, -2.8, -6.17, -4.92, -2.24, -0.0, -0.0, -2.68, -6.26, -3.95, 0.0, 0.45, 0.6, 0.71, 0.0, 0.0, 0.0, -0.0, 0.95, 1.7, 1.79, 1.7, 3.07, 1.79, 1.2, 1.27, 2.8, 4.03, 4.71, 4.0, 2.23, 0.73, 0.0, 0.0, 0.0, 3.07, 3.53, 3.58, 3.14, 3.9, 3.2, 1.35, 0.0, -2.4, -3.46, -3.53, -2.89, -2.17, -2.11, -3.51, -4.71, -5.28, -4.87, -3.53, -2.69, -1.84, -2.15, -1.4, -0.59, -0.57, 0.0, 0.0, 0.0, -0.45, -1.9, -2.91, -3.13, -3.39, -3.49, -3.48, -3.07, -10.55, -10.55, -10.55, -10.55, -10.55, -10.68, -11.08, -11.08, -11.08, -11.08, -11.36, -11.36, -11.22, -10.41, -8.73, -9.48, -9.48, -11.21, -12.94, -13.21, -10.27, -5.34, -1.58, -0.8, -0.8, -0.0, -0.0, 1.24, 1.26, -0.0, -1.58, -0.0, 1.26, 1.26, 0.0, -1.79, -1.7, -0.0, 0.0, 0.0, 0.0, 0.0, 0.0, 0.0, -0.0, -0.0, -0.0, -0.0, -0.0, 0.0, -1.34, -1.58, 0.0, 0.59, 2.0, 1.94, 1.55, 0.73, 0.0, -1.4, -0.67, 1.13, 3.13, 3.51, 2.63, 3.14, 5.37, 5.21, 3.0, 0.0, -0.65, -1.4, -1.95, -2.12, -2.26, -3.11, -3.88, -5.49, -6.87, -7.73, -6.97, -4.0, -2.2, -1.9, -0.53, -0.59, -0.61, -0.64, -0.67, 0.0, -0.61, -1.86, -1.79, -2.17, -3.07, -2.53, -1.9, -2.24, -10.55, -10.55, -10.55, -10.55, -10.55, -11.08, -11.08, -11.08, -11.22, -11.36, -11.36, -11.75, -11.5, -11.07, -10.01, -8.5, -7.27, -7.17, -8.43, -9.01, -6.84, -2.68, -0.0, -0.0, -0.0, -0.0, 0.57, 1.57, 2.18, 1.67, -0.0, -0.0, -0.0, -0.0, -0.0, -0.0, -0.0, -0.0, -0.0, -0.0, -0.0, -0.0, 0.0, 0.0, -0.45, -1.79, -3.04, -3.32, -3.51, -3.58, -4.47, -4.47, -3.98, -3.82, -3.2, -3.93, -1.8, -1.03, -1.4, -1.27, 0.0, 1.7, 2.24, 1.7, 1.34, 1.86, 3.45, 3.48, 2.11, 1.41, 0.78, 0.69, 0.0, 0.0, -2.26, -3.78, -4.6, -5.86, -7.22, -7.22, -5.64, -5.3, -5.13, -5.21, -1.16, -0.73, -1.63, -2.04, -1.19, -0.61, -0.67, -1.13, -0.65, -1.24, -2.21, -1.24, -0.89, -1.9, -10.55, -10.55, -10.55, -10.55, -10.68, -11.08, -10.83, -10.83, -11.22, -11.36, -11.75, -11.5, -11.88, -11.35, -10.88, -9.17, -7.93, -6.97, -6.34, -6.92, -5.71, -3.22, -0.99, -0.63, -0.53, -0.0, -0.0, 1.19, 1.7, 1.14, -0.0, -0.0, -0.0, -0.0, -0.57, -0.0, -0.0, -0.0, -0.0, 0.65, 0.54, -0.0, -0.0, 0.0, 0.0, -1.34, -3.13, -4.92, -8.05, -9.39, -9.39, -10.73, -11.88, -10.68, -8.87, -7.57, -6.17, -3.22, -2.3, 0.0, 0.57, -0.0, 0.0, -1.34, -1.34, -0.45, 0.0, 0.0, 0.0, 0.59, 1.8, 2.0, 1.47, 0.0, -2.31, -3.78, -3.8, -3.64, -3.9, -2.98, -2.84, -6.08, -6.92, -6.51, -4.43, -3.9, -2.9, -1.94, -1.27, 0.0, 0.0, -0.7, -1.27, -1.4, -1.88, -0.6, -0.6, -1.9, -10.55, -10.55, -10.55, -10.55, -11.08, -10.83, -10.83, -11.22, -11.22, -11.75, -11.5, -11.5, -11.62, -11.72, -11.23, -10.36, -9.17, -7.93, -6.69, -6.97, -6.35, -4.83, -3.4, -2.44, -1.49, -1.2, -0.0, -0.0, 1.11, 1.19, 0.54, -0.0, -0.0, -0.8, -0.6, -0.6, -0.0, -0.0, 0.99, 1.4, 1.2, -0.0, 0.0, 0.0, 1.34, 1.34, 0.0, -2.12, -2.6, -4.02, -8.05, -9.33, -5.73, -2.24, -1.34, -2.68, -3.95, -4.52, -2.79, 0.0, -0.0, -0.0, -1.34, -3.58, -4.38, -3.51, -3.58, -2.24, -0.0, 0.89, 1.58, 1.13, 0.0, -0.74, -2.99, -1.47, 0.0, 0.0, -0.57, -0.57, -1.24, -2.84, -4.29, -3.91, -3.38, -6.44, -4.36, -1.49, -0.59, 0.0, -0.72, -1.26, -1.94, -1.49, -0.76, -1.34, -1.86, -1.86, -10.68, -10.55, -10.55, -10.68, -10.83, -10.83, -10.83, -11.22, -11.22, -11.5, -11.5, -11.62, -11.62, -11.72, -11.23, -10.69, -10.09, -8.87, -7.93, -7.32, -6.98, -6.33, -5.04, -4.0, -2.8, -1.76, -1.2, 0.0, 0.0, 0.8, 0.61, 0.59, -0.0, -0.0, -0.0, -0.0, -0.0, 1.26, 1.9, 2.23, 1.49, 0.95, 0.0, 1.79, 1.58, 2.4, 2.24, 0.0, 0.0, -0.63, -2.12, -2.12, 0.0, 0.89, 1.2, 0.45, -1.6, -2.23, -1.2, 0.0, -0.45, 0.0, 0.0, -1.34, -3.58, -6.64, -5.44, -0.7, 1.4, 0.89, 0.0, -0.59, -1.23, -2.2, -0.63, 0.57, 1.7, 1.26, 0.8, 0.63, 0.0, -0.57, -1.4, -1.6, -1.47, -0.65, -2.5, -1.2, 0.0, -0.61, -1.41, -2.0, -1.84, -1.27, -1.33, -2.12, -1.79, -1.79, -10.68, -10.68, -10.68, -11.08, -10.83, -10.83, -10.83, -11.22, -11.22, -11.5, -11.5, -11.62, -11.62, -11.72, -11.23, -10.69, -10.36, -9.48, -8.87, -7.61, -6.97, -6.31, -5.23, -3.94, -2.3, -1.69, -1.09, -1.12, -0.61, 0.0, 0.0, 0.0, -0.0, -0.0, 0.63, 0.89, 1.2, 1.58, 1.9, 1.9, -0.0, -0.0, 1.0, 0.6, 1.58, 1.58, 1.58, -0.0, 1.79, 1.79, 1.79, 2.24, 1.26, 0.0, 0.0, 0.0, 0.0, 0.0, 0.0, 0.0, 0.0, 0.0, 1.34, 0.89, 0.0, -2.17, -2.23, -0.7, -0.65, -0.89, -1.49, -2.51, -2.0, -1.13, 0.0, 1.2, 1.2, 1.2, 1.2, 0.99, 0.45, 0.0, -0.53, -1.27, -1.47, -0.61, 0.0, 0.0, -1.4, -2.2, -2.82, -2.0, -2.23, -2.73, -3.22, -2.15, -2.24, -2.24, -10.68, -10.68, -11.08, -11.08, -10.83, -10.83, -10.83, -11.22, -10.96, -11.34, -11.5, -11.62, -11.35, -11.72, -10.88, -10.36, -10.12, -9.8, -8.58, -7.61, -6.31, -5.89, -5.23, -2.77, -1.15, -0.57, -1.69, -1.73, -1.69, -1.76, -1.73, -1.16, -0.63, 0.0, 2.12, 1.86, 1.2, 0.65, -0.0, -0.0, -0.0, -0.0, -0.0, -0.0, -0.0, -0.0, -0.0, -0.0, -0.0, 1.58, 1.58, 1.58, 0.0, 0.0, 0.0, 0.0, 0.0, 0.0, 0.0, 0.0, 1.34, 1.79, 1.34, 2.24, 3.13, 0.89, 0.0, -2.24, -4.38, -4.85, -4.02, -3.82, -2.4, -0.89, -0.0, 1.16, 0.61, -0.0, -0.0, -0.0, 0.0, -0.57, -1.16, -3.38, -2.51, -2.15, -3.07, 0.0, -2.3, -3.9, -3.0, -2.2, -2.48, -4.07, -3.72, -2.5, -2.17, -2.17, -10.68, -10.68, -11.08, -11.08, -10.83, -10.83, -10.83, -11.22, -10.96, -11.34, -11.34, -11.62, -11.35, -11.16, -11.16, -9.9, -10.06, -10.09, -8.24, -6.58, -5.86, -6.04, -5.89, -4.0, -2.31, -2.13, -2.83, -3.27, -3.0, -3.42, -3.47, -2.86, -1.88, 0.0, 1.7, 2.79, 2.23, -0.0, -0.61, -0.76, -1.2, -0.65, -0.0, -0.0, -0.0, -0.0, -0.0, -0.0, 1.58, 1.58, 1.26, 1.26, 1.79, 1.34, 0.0, 0.0, 0.0, 0.0, 0.0, 0.0, 0.0, 1.79, 1.79, 1.7, 2.12, 1.6, 0.0, -2.53, -4.4, -3.58, -3.13, -1.9, 0.0, 0.0, 0.0, 0.0, -0.0, -0.61, -1.61, -1.7, -2.15, -2.23, -2.79, -2.79, -3.07, -4.43, -6.06, -4.74, -5.3, -4.12, -2.84, -2.88, -3.55, -4.43, -4.46, -2.86, -2.8, -2.8, -10.68, -10.68, -11.08, -11.08, -10.83, -10.83, -10.83, -11.22, -10.96, -10.96, -11.07, -11.07, -11.16, -11.16, -11.23, -10.3, -10.06, -9.94, -8.3, -6.88, -6.87, -7.55, -8.23, -7.08, -7.18, -6.88, -5.21, -5.69, -5.08, -5.06, -4.43, -3.49, -3.14, -1.2, 0.63, 1.88, 1.27, -0.0, -0.54, -1.07, -1.08, -0.0, -0.0, -0.0, -0.0, -0.0, -0.0, -0.0, 1.2, 1.58, 1.58, 1.58, 1.58, 1.26, 0.45, 0.0, 0.0, 0.0, 0.0, 0.0, 0.0, 1.79, 1.58, 2.4, 1.6, 0.95, 0.0, -1.2, -0.59, 0.7, 1.33, 2.31, 3.11, 1.51, -0.78, -2.0, -2.15, -1.7, -2.68, -2.68, -2.4, -2.21, -1.0, 0.0, 0.0, -0.99, -1.26, 0.0, -1.84, -1.2, -2.86, -5.06, -5.3, -6.07, -5.6, -5.69, -3.74, -3.74, -10.68, -10.68, -10.68, -11.08, -10.83, -10.83, -10.83, -10.58, -10.96, -10.96, -11.07, -11.07, -11.16, -11.16, -11.23, -11.23, -10.06, -9.94, -9.76, -9.66, -9.48, -9.5, -9.82, -9.8, -10.09, -9.13, -6.92, -5.49, -4.55, -4.55, -4.29, -3.73, -3.35, -2.0, -0.89, -0.0, 0.59, -0.0, -0.0, -0.0, -0.0, -0.0, -0.0, -0.0, -0.0, -0.0, -0.0, -0.0, 1.2, 1.0, 1.58, 1.58, 1.26, -0.0, 0.0, 0.0, 0.0, 0.0, 0.0, 0.0, 1.79, 2.21, 2.53, -0.0, -0.0, -0.0, -0.0, 0.0, 1.9, 5.09, 6.7, 7.59, 5.89, 2.31, -1.45, -6.24, -4.0, -2.24, -2.21, -2.68, -2.24, -0.89, 1.34, 2.6, 2.23, 1.24, 0.6, 0.45, 0.0, 0.0, -2.88, -6.01, -5.69, -4.09, -5.02, -5.44, -3.53, -3.53, -10.68, -10.68, -10.68, -11.08, -10.83, -10.68, -10.68, -10.58, -10.96, -10.96, -11.07, -11.07, -11.16, -11.16, -11.23, -11.23, -10.3, -10.01, -10.59, -10.94, -10.4, -10.09, -10.09, -10.69, -10.72, -9.17, -6.95, -4.37, -3.2, -3.32, -3.6, -3.35, -3.6, -2.91, -1.79, -0.8, -0.0, -0.0, -0.0, -0.0, -0.0, -0.0, -0.0, -0.0, -0.0, -0.0, -0.0, -0.0, -0.0, -0.0, -0.0, -0.0, -0.0, -0.0, 0.0, 0.0, 0.0, -0.0, 0.0, 0.0, 0.95, 1.86, 1.58, 0.6, -0.0, -0.0, -0.0, -0.0, 1.34, 3.13, 3.51, 5.59, 4.71, 1.47, -5.46, -9.45, -9.05, -3.6, -1.26, -1.13, -1.33, -0.71, 0.6, 1.26, 1.26, 0.57, -0.0, -1.79, -3.15, -2.0, -5.7, -6.92, -4.74, -1.9, -2.24, -3.13, -3.13, -3.13, -10.68, -10.68, -10.55, -10.55, -10.68, -10.68, -10.68, -10.41, -10.79, -10.96, -10.7, -11.07, -10.8, -11.16, -11.23, -10.88, -10.3, -10.3, -10.36, -10.43, -10.13, -8.87, -8.87, -9.77, -10.09, -8.87, -6.98, -5.08, -3.16, -2.15, -2.0, -2.6, -2.91, -2.91, -2.63, -2.24, -0.57, -0.0, -0.0, -0.0, -0.0, -0.0, -0.0, 0.59, 0.59, 0.61, 0.99, 1.4, -0.0, -0.0, -0.0, -0.0, -0.0, -0.0, 0.0, 0.0, 0.63, 0.6, 0.0, 0.0, 0.45, 1.2, 1.2, 0.63, -0.0, -0.0, -0.0, 0.0, 0.0, -0.0, -0.6, -1.2, -0.7, -0.71, -2.24, -6.67, -9.26, -6.64, -1.79, -0.0, -0.57, -0.59, -0.54, -0.57, -0.57, -0.8, -2.6, -3.97, -7.07, -8.22, -7.8, -5.69, -2.21, 0.0, -0.63, -2.24, -3.13, -3.13, -10.55, -10.55, -10.55, -10.55, -10.3, -10.68, -10.68, -10.41, -10.41, -10.79, -10.51, -11.07, -10.8, -11.16, -10.88, -10.65, -10.65, -10.65, -10.69, -10.43, -9.84, -8.86, -8.24, -8.24, -8.53, -7.93, -7.3, -6.04, -4.45, -2.86, -2.15, -2.12, -2.17, -3.07, -3.09, -2.68, -1.7, -0.57, -0.0, -0.0, -0.0, -0.0, 0.61, 1.16, 1.13, 1.13, 1.13, 1.2, 1.2, -0.0, -0.0, -0.0, -0.0, -0.0, -0.0, 1.79, 0.63, -0.0, 0.0, 0.0, 0.0, 0.0, 0.0, 0.0, 0.63, -0.0, 0.0, 0.0, 0.0, -0.45, -3.13, -6.0, -3.07, -0.63, -0.0, -2.24, -6.17, -7.31, -2.54, 0.0, 0.53, -0.0, -0.61, -1.61, -2.5, -2.91, -4.02, -7.12, -8.0, -5.09, -5.09, -1.2, 0.0, 0.0, -0.89, -2.24, -3.13, -3.13, -10.55, -10.55, -10.55, -10.55, -10.55, -10.3, -10.68, -10.41, -10.41, -10.79, -10.51, -10.87, -10.8, -11.16, -10.65, -10.65, -10.65, -10.36, -10.4, -10.43, -10.13, -9.5, -8.59, -8.24, -7.61, -7.3, -7.27, -6.67, -5.71, -4.45, -3.16, -2.5, -2.4, -2.63, -3.09, -3.53, -2.68, -1.7, -0.8, -0.0, -0.0, -0.0, 0.65, 1.16, 1.84, 1.8, 1.13, 1.16, 1.2, 1.2, 0.65, -0.0, -0.0, -0.0, -0.0, 1.26, 1.79, 0.63, -0.45, -0.63, 0.0, -0.63, -0.89, -0.0, 0.63, -0.0, 0.0, 0.0, -0.0, -2.6, -5.16, -5.6, -3.6, -1.79, 0.45, 0.0, -1.49, -3.07, -2.6, -1.26, -0.0, 0.53, -0.0, -1.88, -3.07, -3.39, -4.47, -6.22, -4.73, -2.68, -0.0, 1.2, 0.0, -0.57, -1.2, -1.79, -2.68, -2.68, -10.55, -10.55, -10.55, -10.55, -10.55, -10.3, -10.3, -10.41, -10.41, -10.51, -10.51, -10.87, -10.59, -10.59, -10.65, -10.3, -10.65, -10.69, -10.72, -10.43, -10.43, -9.84, -9.5, -8.59, -7.61, -7.3, -7.27, -6.97, -6.64, -5.71, -4.45, -3.48, -2.79, -2.68, -2.91, -3.53, -3.07, -2.24, -1.34, -0.95, -0.0, -0.0, -0.0, 1.2, 1.16, 1.84, 1.16, 1.16, 1.2, 1.4, 1.16, 0.53, 1.4, 1.4, 1.2, 1.9, 1.9, 0.89, 0.0, -0.89, -1.2, -0.63, 0.0, 0.0, 0.0, -0.0, -0.0, -0.0, -0.0, -2.24, -4.24, -5.58, -4.46, -2.51, -0.65, 0.0, 0.0, -1.88, -2.21, -1.49, -0.45, 0.54, -0.0, -1.0, -2.53, -2.68, -3.58, -4.02, -3.13, -2.5, -2.15, 0.0, -1.2, -1.61, -1.24, -1.34, -2.24, -2.24, -10.55, -10.55, -10.55, -10.55, -10.55, -10.3, -10.3, -10.3, -10.41, -10.15, -10.51, -10.23, -10.59, -10.59, -10.3, -10.65, -10.65, -10.69, -10.72, -10.43, -10.43, -9.84, -9.84, -9.21, -8.58, -7.61, -7.3, -7.27, -6.95, -6.64, -5.69, -5.69, -4.75, -4.11, -3.48, -3.35, -3.07, -2.91, -2.4, -1.7, -1.2, -0.89, 0.0, 0.57, 1.0, 1.2, 1.2, 1.2, 1.2, 1.2, 1.16, 1.16, 1.84, 1.84, 1.24, 1.26, 1.4, 1.26, 0.45, 0.0, -1.34, -0.89, 0.0, 0.0, 0.0, -0.0, -0.0, -0.0, -1.26, -2.68, -3.82, -4.66, -5.72, -4.43, -1.8, 0.0, 0.0, -0.59, -1.88, -1.58, -0.89, 0.57, 1.2, -0.0, -1.61, -2.79, -3.39, -2.91, -2.21, -2.84, -4.11, -4.47, -3.14, -3.48, -2.53, -1.86, -2.24, -2.24, -10.16, -10.16, -10.55, -10.55, -10.55, -10.3, -10.3, -10.3, -10.41, -10.15, -10.51, -10.23, -10.59, -10.59, -10.3, -10.65, -10.65, -10.69, -10.72, -10.72, -10.43, -10.13, -10.13, -9.5, -9.19, -8.56, -7.9, -7.6, -7.27, -6.95, -6.92, -6.32, -5.69, -5.06, -4.43, -3.73, -3.72, -3.07, -2.5, -2.23, -1.49, -1.2, -0.89, 0.0, -0.0, 0.95, 1.26, 1.24, 1.2, 1.2, 1.16, 1.16, 1.84, 2.51, 2.84, 1.24, 1.9, 0.95, 0.63, -0.0, -0.63, -0.89, -0.45, 0.0, 0.0, 0.0, 0.0, 0.0, -1.2, -2.68, -3.51, -3.49, -5.43, -5.72, -3.72, -1.84, -0.7, -1.2, -1.86, -1.26, -0.89, -0.0, 2.53, 0.65, -1.16, -3.16, -3.79, -2.79, -2.51, -3.14, -4.0, -4.47, -4.66, -4.93, -3.72, -2.68, -2.63, -2.63, -10.16, -10.16, -10.16, -10.55, -10.55, -10.3, -10.3, -10.3, -10.04, -10.41, -10.15, -10.23, -10.23, -10.59, -10.3, -10.65, -10.65, -10.69, -10.4, -10.72, -10.43, -10.13, -9.82, -9.5, -9.19, -8.87, -8.53, -7.93, -7.59, -6.95, -6.92, -6.59, -6.01, -5.69, -4.75, -4.12, -4.07, -3.43, -2.79, -2.5, -1.58, -1.26, -1.2, 0.0, 0.0, 1.34, 1.6, 0.8, 0.71, 1.2, 1.16, 1.61, 1.84, 2.51, 2.84, 2.84, 1.58, 1.6, 0.95, -0.0, -0.0, -0.63, -0.45, -0.89, -0.45, 0.0, 0.0, 0.0, -0.0, -1.26, -2.68, -2.84, -3.69, -6.01, -8.14, -5.64, -3.53, -2.68, -1.7, -0.63, -0.32, -1.34, 0.65, 1.19, -0.0, -1.8, -2.44, -2.48, -2.84, -3.45, -3.39, -3.53, -4.47, -5.72, -5.44, -4.0, -3.32, -3.32, -10.16, -10.16, -10.16, -10.16, -10.55, -10.3, -10.3, -10.3, -10.04, -10.41, -9.94, -10.23, -10.23, -10.59, -10.3, -10.3, -10.65, -10.69, -10.4, -10.72, -10.43, -10.13, -10.12, -9.19, -8.87, -8.56, -8.53, -7.93, -7.6, -6.97, -6.95, -6.92, -6.32, -5.71, -5.08, -4.75, -4.12, -3.79, -3.43, -2.79, -2.5, -1.58, -1.26, -0.63, 0.0, 0.45, 0.89, 0.6, 0.57, 0.71, 1.2, 1.16, 1.84, 2.23, 2.84, 2.84, 3.35, 3.14, 1.24, 0.54, -0.0, -0.57, -0.95, -0.99, -0.0, -0.0, -0.0, -0.0, -0.0, -1.2, -3.58, -4.0, -3.69, -3.95, -7.18, -7.07, -3.97, -2.91, -1.7, 0.0, 0.0, -2.24, -0.71, 0.61, 1.23, 0.59, -0.0, -0.51, -1.2, -1.58, -1.49, -2.17, -3.58, -6.07, -6.11, -5.44, -4.52, -4.52, -10.16, -10.16, -10.16, -10.16, -10.16, -10.3, -10.3, -10.3, -10.04, -9.86, -10.23, -9.94, -10.01, -10.01, -10.3, -10.3, -10.36, -10.36, -10.4, -10.4, -10.4, -10.12, -9.8, -9.48, -8.87, -8.56, -8.24, -7.93, -6.98, -6.98, -6.97, -6.95, -6.64, -6.01, -5.69, -5.08, -4.45, -3.83, -3.49, -2.86, -2.23, -1.88, -1.58, -1.26, 0.0, 0.0, 0.0, -0.0, -0.0, -0.0, 0.71, 1.2, 1.88, 1.84, 2.51, 2.84, 3.16, 2.86, 2.44, 0.7, -0.0, -1.2, -1.24, -0.0, 0.95, 0.89, -0.0, -2.12, -2.12, -2.21, -4.73, -5.64, -3.16, -1.52, -3.07, -5.3, -4.43, -2.24, -1.2, -0.63, 0.0, -0.89, -1.79, -0.0, 1.16, 1.76, 2.44, 1.27, 0.59, 1.0, 0.71, -0.0, -2.24, -4.02, -6.67, -7.01, -5.67, -5.67, -10.16, -10.16, -10.02, -10.02, -10.02, -10.16, -10.3, -10.13, -10.13, -9.86, -9.86, -9.94, -9.94, -10.01, -10.06, -10.06, -10.36, -10.36, -10.4, -9.8, -9.8, -9.8, -9.48, -9.17, -8.56, -8.53, -7.93, -7.6, -6.95, -6.69, -7.3, -6.97, -6.64, -6.32, -5.71, -5.38, -4.47, -4.12, -3.83, -3.49, -2.86, -2.23, -1.88, -1.24, -0.8, -0.63, -0.45, -0.0, -0.0, -0.0, 0.6, 1.24, 1.9, 1.88, 1.61, 2.51, 2.23, 2.44, 1.88, 0.58, -0.79, -1.6, -0.0, 1.26, 1.86, 2.17, 0.89, -2.68, -4.38, -5.37, -3.6, -4.02, -3.51, -2.99, -2.25, -4.75, -5.0, -0.89, -0.0, -0.0, 0.0, 0.0, 0.0, -0.6, -0.0, 0.54, 1.76, 2.44, 2.47, 2.48, 2.53, 1.0, -0.6, -3.13, -5.81, -6.67, -5.78, -5.78, -9.63, -9.63, -10.02, -10.02, -10.02, -10.02, -9.76, -9.76, -10.13, -9.86, -9.86, -9.59, -9.94, -9.66, -9.72, -10.06, -9.77, -9.77, -10.09, -9.8, -9.8, -9.19, -9.48, -9.46, -8.85, -8.24, -7.93, -7.9, -7.59, -7.27, -6.97, -6.67, -6.34, -6.04, -5.71, -5.1, -5.08, -4.47, -4.12, -3.49, -3.12, -2.22, -2.23, -1.61, -1.2, -0.71, 0.0, 0.0, 0.0, 0.0, 0.0, 0.95, 1.26, 1.24, 1.49, 1.2, 1.16, 1.23, 1.19, -0.0, -1.08, -0.85, 1.2, 1.86, 2.4, 2.6, 2.24, 0.0, -2.6, -2.8, -1.79, -2.17, -3.58, -4.12, -4.5, -4.5, -3.07, -0.0, 1.79, 1.0, 0.0, 0.0, 0.0, 0.0, 0.0, 0.0, -0.0, 1.7, 3.11, 4.01, 3.16, 1.88, -0.0, -2.4, -3.98, -5.36, -5.36, -5.36, -9.63, -9.63, -9.63, -9.63, -10.02, -10.02, -9.76, -9.76, -9.76, -9.86, -9.86, -9.59, -9.94, -9.66, -9.72, -9.72, -9.48, -9.48, -9.48, -9.5, -9.19, -9.48, -9.17, -8.85, -8.53, -8.24, -7.93, -7.93, -8.24, -7.3, -6.34, -6.32, -6.04, -5.72, -5.72, -5.38, -4.81, -4.47, -3.85, -3.84, -3.49, -2.84, -2.22, -1.8, -1.33, -1.16, -0.65, -0.71, 0.0, 0.0, 0.0, 0.0, 0.89, 1.2, 1.26, 1.26, 0.71, 0.71, 0.59, -0.0, -0.0, -0.0, 1.0, 2.23, 1.86, 1.58, 1.86, 0.95, -0.45, -0.95, -1.24, -1.6, -3.04, -7.07, -6.87, -4.6, -1.2, 1.7, 2.53, 1.94, 1.19, 0.0, 0.0, 0.0, 0.0, 0.0, 0.0, 1.34, 1.9, 3.79, 3.79, 2.86, 1.24, -1.26, -3.98, -4.92, -5.81, -5.81, -9.63, -9.63, -9.63, -9.63, -9.63, -9.63, -9.76, -9.76, -9.76, -9.5, -9.86, -9.37, -9.37, -9.42, -9.42, -9.46, -9.17, -9.48, -9.48, -9.19, -9.19, -9.17, -8.56, -8.53, -8.53, -8.24, -8.24, -7.95, -7.95, -7.6, -6.34, -5.71, -5.71, -5.72, -5.72, -5.1, -5.1, -4.75, -4.47, -4.12, -3.47, -2.82, -2.4, -2.44, -1.76, -1.13, -1.16, -0.61, -0.65, -0.57, 0.0, 0.0, 0.0, 0.89, 0.89, 0.95, 0.95, 0.6, -0.0, 0.0, -0.0, 0.99, 1.13, 2.23, 1.6, -0.0, -0.0, -0.0, -0.0, -1.26, -2.15, -3.04, -4.0, -6.88, -6.87, -3.78, 0.72, 3.79, 4.22, 2.26, 0.64, 0.0, -0.57, -0.59, 0.0, 0.58, 1.26, 0.61, 1.26, 2.12, 3.22, 2.53, 1.9, -0.6, -3.53, -6.22, -6.71, -6.71, -9.63, -9.63, -9.63, -9.63, -9.63, -9.63, -9.38, -9.76, -9.76, -9.5, -9.3, -9.37, -9.37, -9.08, -9.42, -9.13, -9.17, -9.17, -9.48, -9.19, -8.87, -8.87, -8.85, -8.53, -8.24, -8.24, -8.24, -7.95, -7.61, -6.7, -6.35, -5.72, -5.71, -5.1, -5.1, -5.1, -5.1, -4.73, -4.75, -3.85, -3.47, -3.22, -2.61, -2.4, -1.73, -1.76, -1.11, -1.13, -1.16, -0.65, -0.71, 0.0, 0.0, 0.0, 0.45, 0.89, 0.89, 0.89, 0.0, 0.0, 0.89, 1.16, 1.08, 0.65, 0.76, -0.0, -0.0, -0.0, -0.0, -0.63, -2.12, -3.13, -3.2, -3.8, -3.02, -1.52, 0.71, 2.23, 1.54, 0.0, -0.64, -0.63, -0.59, 0.0, 0.54, 1.16, 1.49, 1.8, 1.16, 1.26, 2.12, 2.5, 1.9, -0.0, -3.07, -5.32, -7.57, -7.57, -9.25, -9.25, -9.48, -9.48, -9.48, -9.48, -9.21, -9.21, -9.58, -9.3, -9.3, -9.37, -9.37, -9.08, -8.82, -8.85, -8.87, -8.87, -8.87, -8.87, -8.87, -8.56, -8.53, -8.53, -7.93, -8.24, -8.24, -7.95, -7.61, -6.7, -6.35, -6.06, -5.72, -5.1, -5.1, -4.71, -4.71, -4.46, -4.47, -4.1, -3.85, -3.47, -2.82, -1.49, -1.73, -1.73, -1.73, -1.76, -1.6, -1.16, -1.2, -0.71, 0.0, 0.0, 0.0, 0.0, 0.0, 0.45, 0.89, 0.89, 0.0, 0.8, 0.98, 0.65, 0.76, -0.0, 0.99, 1.98, 1.9, -0.0, -1.2, -2.6, -1.7, 0.0, -0.73, -2.21, -2.99, -3.7, -3.85, -3.44, -2.66, -1.84, -0.54, 0.0, 1.24, 1.84, 1.8, 2.0, 2.0, 1.2, 0.89, 1.86, 1.9, 0.71, -1.86, -4.43, -6.11, -7.01, -9.1, -9.1, -9.1, -9.1, -9.1, -9.48, -9.21, -9.21, -9.21, -9.3, -9.3, -9.02, -9.02, -8.82, -8.82, -8.85, -8.85, -8.87, -8.87, -8.87, -8.56, -8.56, -8.24, -8.24, -7.93, -8.24, -8.24, -8.24, -7.32, -6.98, -6.35, -6.08, -5.72, -5.09, -5.1, -4.71, -4.46, -4.46, -4.08, -4.08, -4.1, -3.45, -3.47, -2.3, -1.7, -2.36, -2.18, -2.2, -2.22, -1.6, -1.16, -1.2, -0.71, 0.0, 0.0, 0.0, 0.0, 0.0, 0.89, 0.63, 0.63, 0.0, -0.0, 0.76, 0.85, 1.4, 1.6, 0.85, -0.0, -0.0, -0.63, -1.86, -1.79, -1.27, -2.25, -2.25, -4.6, -7.18, -7.51, -6.17, -3.15, -1.61, 0.0, 1.2, 1.84, 1.8, 1.76, 1.47, 1.41, 1.27, 0.57, 0.63, 1.24, 0.71, -0.71, -3.39, -4.73, -6.11, -9.1, -9.1, -9.1, -9.1, -9.1, -9.1, -8.84, -9.21, -9.21, -8.94, -8.94, -9.02, -9.02, -8.82, -8.82, -8.53, -8.85, -8.56, -8.56, -8.56, -8.24, -7.95, -8.24, -7.93, -7.93, -8.24, -8.24, -7.93, -7.6, -6.98, -6.69, -6.35, -5.72, -5.72, -5.09, -4.69, -4.45, -4.05, -4.05, -4.08, -3.84, -3.45, -3.22, -3.08, -2.4, -2.16, -3.04, -2.84, -2.86, -2.23, -1.84, -1.16, -0.65, -0.71, 0.0, 0.0, 0.0, 0.0, 0.0, 0.0, 0.63, 0.63, 0.89, -0.0, 1.4, 1.4, -0.0, -0.0, -0.0, -0.0, 0.0, -2.0, -3.58, -3.58, -3.14, -0.78, -0.76, -3.09, -5.28, -4.8, -2.48, 0.0, 1.16, 2.0, 1.94, 1.3, 1.3, 1.41, 1.52, 0.76, 0.0, 0.0, -0.0, -0.0, -0.0, -1.86, -3.53, -4.73, -9.1, -9.1, -9.1, -9.1, -9.1, -9.1, -8.84, -8.84, -9.21, -8.73, -8.73, -8.78, -8.78, -8.5, -8.82, -8.53, -8.53, -8.24, -8.24, -8.24, -8.24, -8.24, -7.93, -7.93, -7.93, -8.24, -7.93, -7.61, -7.3, -6.98, -6.69, -6.35, -6.35, -5.72, -5.46, -5.08, -4.69, -4.45, -4.05, -3.83, -4.08, -3.84, -3.85, -3.45, -3.47, -2.88, -2.82, -3.12, -2.6, -2.48, -1.8, -1.84, -1.16, -1.2, -0.54, -0.71, 0.0, 0.0, 0.0, 0.0, 0.0, 0.63, 0.0, 0.0, -0.0, -0.0, -0.0, -0.0, -0.85, -0.0, -0.0, -2.68, -4.02, -5.51, -3.22, -1.1, 0.0, -0.73, -2.99, -3.11, -1.0, 1.2, 2.48, 3.26, 2.66, 1.36, 1.36, 0.72, 0.72, 0.72, 0.73, 0.0, -0.63, -0.89, -0.6, -1.26, -2.6, -2.6, -9.1, -9.1, -9.1, -9.1, -9.1, -8.93, -8.65, -8.65, -8.65, -8.73, -8.73, -8.45, -8.78, -8.78, -8.82, -8.53, -8.24, -8.24, -8.24, -8.24, -7.95, -8.24, -7.93, -7.93, -7.93, -8.24, -7.61, -7.32, -7.3, -6.98, -6.97, -6.97, -6.35, -6.08, -5.72, -5.72, -5.08, -4.44, -4.45, -4.03, -4.05, -4.08, -3.84, -3.84, -3.84, -3.68, -3.04, -2.86, -2.48, -2.48, -2.23, -1.6, -1.84, -1.16, -1.2, -0.65, -0.71, 0.0, 0.0, 0.0, 0.0, 0.0, 0.0, 0.0, -0.0, -0.0, -0.0, -0.0, -0.0, -0.0, -0.0, -2.68, -4.02, -4.43, -5.51, -4.89, -3.47, -2.99, -2.8, -2.23, 0.0, 2.51, 3.47, 3.33, 2.18, 1.45, 0.78, 0.67, 0.0, 0.0, 0.0, 0.0, -0.57, -1.7, -1.79, -2.24, -2.24, -2.24, -9.1, -9.1, -9.1, -8.93, -8.93, -8.93, -8.65, -8.65, -8.65, -8.38, -8.73, -8.45, -8.78, -8.78, -8.5, -8.53, -8.24, -7.95, -8.24, -7.95, -7.95, -7.93, -7.93, -7.93, -7.93, -7.93, -7.61, -7.32, -7.3, -6.98, -6.97, -6.97, -6.35, -6.35, -6.08, -5.72, -5.72, -5.08, -5.08, -4.69, -4.45, -4.05, -4.08, -4.08, -4.08, -3.42, -3.0, -2.82, -2.44, -2.22, -2.23, -1.8, -1.84, -1.84, -1.16, -1.4, -0.65, -0.71, -0.57, 0.0, 0.0, 0.0, 0.0, 0.0, -0.0, -0.0, -0.0, -0.0, -0.0, -0.0, -0.0, -2.24, -4.02, -5.64, -7.28, -8.14, -6.7, -4.36, -3.48, -0.61, 3.79, 6.28, 4.73, 2.75, 2.06, 1.36, 1.45, 0.72, 0.67, 0.0, 0.0, 0.0, 0.0, -2.17, -2.68, -2.63, -2.63, -2.63, -9.1, -9.1, -9.1, -8.55, -8.55, -8.93, -8.65, -8.65, -8.65, -8.38, -8.73, -8.45, -8.45, -8.78, -8.5, -8.5, -8.24, -7.95, -7.95, -7.95, -7.61, -7.93, -7.93, -7.93, -7.93, -7.61, -7.61, -7.32, -7.3, -6.98, -6.97, -6.97, -6.67, -6.35, -6.35, -5.72, -5.72, -5.72, -5.08, -5.08, -4.69, -4.45, -4.71, -4.05, -4.05, -3.83, -3.42, -2.8, -2.82, -2.84, -2.44, -2.48, -2.23, -1.84, -1.84, -1.4, -1.2, -1.2, -1.24, -0.71, -0.57, 0.0, 0.0, 0.0, 0.0, -0.0, -0.0, -0.0, -0.0, -0.0, -0.0, -1.79, -3.53, -5.64, -5.6, -4.0, -3.14, -1.8, -1.41, 3.11, 8.6, 7.8, 4.87, 2.54, 1.32, 1.26, 1.26, 1.4, 0.69, 0.0, 0.0, 0.0, -1.24, -2.6, -3.07, -3.51, -3.51, -3.51, -9.1, -9.1, -8.55, -8.55, -8.55, -8.55, -8.29, -8.65, -8.65, -8.38, -8.38, -8.73, -8.45, -8.78, -8.5, -8.5, -8.24, -8.24, -7.95, -7.95, -7.61, -7.61, -7.93, -7.93, -7.93, -7.61, -7.61, -7.32, -7.6, -7.3, -6.98, -6.97, -6.97, -6.35, -6.35, -6.35, -5.72, -5.72, -5.72, -5.08, -5.34, -5.09, -4.69, -4.45, -4.71, -4.05, -4.08, -3.42, -3.45, -3.04, -3.08, -2.2, -2.22, -2.23, -2.23, -1.61, -1.88, -1.61, -1.2, -1.24, -1.24, -0.8, 0.0, -0.63, -0.89, -0.0, -0.0, -0.0, -0.0, -0.0, -1.2, -1.79, -2.6, -3.32, -1.9, 0.0, 0.0, 0.0, 1.52, 6.06, 8.32, 7.08, 3.02, 2.06, 1.4, 1.26, 0.69, 0.65, 0.0, 0.0, 0.0, -0.53, -1.24, -2.17, -3.51, -4.24, -4.24, -4.24, -8.72, -8.72, -8.55, -8.55, -8.55, -8.55, -8.29, -8.29, -8.65, -8.38, -8.38, -8.73, -8.45, -8.45, -8.22, -8.22, -8.22, -8.24, -8.24, -7.95, -7.61, -7.61, -7.61, -7.93, -7.93, -7.61, -7.61, -7.32, -7.6, -7.3, -6.98, -6.97, -6.97, -6.97, -6.35, -6.35, -6.0, -6.0, -5.46, -5.72, -5.34, -5.34, -5.09, -4.69, -4.69, -4.45, -4.05, -4.08, -3.42, -3.45, -3.22, -2.82, -2.84, -2.2, -2.23, -1.8, -1.84, -1.88, -1.88, -1.61, -1.24, -1.24, -0.8, -0.6, -0.89, -0.0, -0.0, -0.0, -0.0, -1.2, -1.2, -1.7, -1.34, -0.89, 0.0, 0.63, 0.57, 0.7, 4.74, 6.0, 6.07, 4.5, 3.07, 3.53, 2.83, 1.28, 0.0, 0.0, 0.0, 0.0, 0.0, -0.61, -1.2, -2.12, -3.13, -4.87, -4.87, -4.87, -8.55, -8.55, -8.55, -8.55, -8.55, -8.55, -8.29, -8.29, -8.65, -8.65, -8.38, -8.15, -8.19, -8.19, -8.22, -8.22, -8.22, -7.93, -8.24, -7.95, -7.95, -7.61, -7.93, -7.93, -7.93, -7.93, -7.61, -7.32, -7.6, -7.3, -7.3, -7.28, -6.97, -6.97, -6.67, -6.35, -6.35, -6.0, -5.72, -5.72, -5.34, -5.09, -5.09, -5.09, -4.69, -4.45, -4.03, -4.05, -4.08, -3.42, -3.42, -3.0, -2.8, -2.36, -2.2, -2.22, -1.8, -1.8, -1.84, -1.88, -1.9, -1.58, -1.58, -1.26, -0.63, 0.0, -0.0, 1.9, -0.0, -0.63, -1.2, -1.26, -0.99, -0.0, -0.0, 0.45, 0.6, 1.9, 3.83, 5.05, 3.48, 3.91, 4.8, 5.62, 3.53, 1.32, 0.0, 0.0, 0.0, 0.0, 0.0, -0.66, -1.4, -1.86, -2.6, -4.47, -4.47, -4.47, -8.55, -8.55, -8.55, -8.55, -8.55, -8.55, -8.29, -8.29, -8.29, -8.65, -8.15, -8.15, -8.19, -8.19, -7.9, -8.22, -8.22, -7.93, -8.24, -8.24, -8.24, -7.93, -7.93, -7.93, -8.24, -7.93, -7.61, -7.61, -7.6, -7.6, -7.3, -7.3, -6.97, -6.97, -6.97, -6.35, -6.35, -6.35, -5.72, -5.72, -5.72, -5.09, -5.09, -5.09, -4.69, -4.69, -4.45, -4.05, -3.83, -3.64, -3.42, -3.42, -3.0, -2.8, -2.36, -2.4, -2.2, -2.22, -2.23, -2.23, -2.21, -1.9, -1.9, -1.26, -0.95, -0.89, -0.0, 0.85, 0.99, -0.0, -0.0, -0.45, -0.71, -0.0, -0.0, 0.0, 0.45, 1.7, 2.4, 2.53, 2.07, 2.98, 4.83, 4.71, 2.76, 0.0, -0.57, -0.59, -0.57, 0.0, 0.0, -0.76, -1.27, -1.88, -2.8, -4.02, -4.02, -4.02, -8.82, -8.82, -8.55, -8.55, -8.55, -8.55, -8.55, -8.29, -8.29, -8.44, -8.15, -8.15, -8.19, -8.19, -8.19, -8.22, -8.22, -7.93, -7.93, -8.24, -8.24, -7.93, -8.24, -8.24, -8.24, -8.24, -7.93, -7.93, -7.6, -7.6, -7.3, -7.3, -7.59, -6.97, -6.97, -6.67, -6.35, -6.35, -6.35, -5.72, -5.72, -5.45, -5.36, -5.36, -5.09, -4.69, -4.45, -4.46, -4.05, -4.08, -4.08, -3.42, -3.45, -3.04, -2.82, -2.82, -2.4, -2.2, -2.44, -2.48, -2.51, -2.53, -2.15, -1.86, -1.6, -1.34, -1.58, -0.76, -0.0, -0.0, 0.0, 0.0, 0.0, -0.0, -0.0, -0.0, -0.0, 0.63, 0.89, 0.99, 1.2, 2.15, 2.51, 2.26, 0.72, -0.61, -1.27, -1.61, -1.61, -1.27, -1.19, -1.41, -1.94, -2.3, -2.5, -2.17, -2.17, -2.17, -8.82, -8.82, -8.55, -8.55, -8.55, -8.55, -8.55, -8.29, -8.29, -8.44, -8.15, -8.15, -8.19, -8.19, -8.19, -8.22, -8.22, -7.93, -7.93, -8.24, -7.93, -7.93, -8.24, -8.24, -8.24, -8.24, -7.93, -7.93, -8.22, -7.6, -7.6, -7.3, -7.59, -6.97, -6.97, -6.97, -6.67, -6.35, -6.35, -6.06, -5.72, -6.01, -5.72, -5.36, -5.36, -5.36, -5.1, -4.71, -4.73, -4.47, -4.08, -4.1, -4.1, -3.47, -3.47, -3.49, -3.08, -2.84, -2.84, -2.86, -2.22, -2.51, -2.53, -2.15, -2.12, -1.79, -1.6, -1.9, -1.49, -1.24, -0.57, 0.0, 0.0, 0.0, -0.0, -0.0, -0.0, -0.0, -0.0, 0.0, 0.57, 1.61, 1.4, 0.0, -0.71, -0.59, -1.27, -1.61, -2.4, -2.79, -2.48, -2.8, -3.11, -2.51, -1.9, -1.34, -1.34, -1.34, -8.82, -8.82, -8.82, -8.55, -8.55, -8.55, -8.55, -8.29, -8.29, -8.65, -8.38, -8.38, -8.45, -8.45, -8.19, -8.22, -8.22, -8.22, -7.93, -7.93, -7.93, -7.93, -8.82, -8.53, -8.24, -8.24, -7.93, -7.93, -8.22, -7.6, -7.6, -7.3, -7.59, -7.59, -6.97, -6.97, -6.67, -6.95, -6.65, -6.34, -6.34, -6.01, -5.72, -5.72, -5.72, -5.36, -5.1, -5.38, -5.1, -4.73, -4.75, -4.47, -4.47, -4.12, -3.84, -4.12, -3.49, -3.49, -3.22, -2.84, -3.12, -2.6, -2.51, -2.21, -2.4, -2.68, -1.79, -2.6, -2.8, -2.21, -1.2, -1.26, -1.34, -1.24, -0.63, -0.0, -0.0, -0.0, -0.0, 0.0, 0.0, 0.57, 0.53, -0.78, -0.65, -0.67, -0.57, -0.57, -1.34, -2.91, -2.84, -3.38, -3.64, -2.53, -1.2, -0.0, -0.0, -0.0, -8.82, -8.82, -8.82, -8.55, -8.55, -8.55, -8.55, -8.29, -8.65, -8.65, -8.38, -8.73, -8.73, -8.45, -8.45, -8.5, -8.22, -8.22, -8.22, -7.93, -7.93, -7.93, -8.22, -8.5, -8.22, -8.22, -8.22, -8.22, -8.22, -7.9, -7.6, -7.3, -7.59, -7.59, -7.27, -6.97, -6.97, -6.95, -6.95, -6.95, -6.34, -6.34, -5.72, -5.72, -5.72, -5.72, -5.1, -5.38, -5.1, -5.38, -5.08, -4.75, -4.45, -4.45, -4.12, -4.12, -3.83, -4.11, -3.49, -3.49, -3.22, -2.86, -2.86, -2.84, -3.07, -2.91, -3.53, -4.02, -2.6, -1.49, -0.6, -1.26, -1.79, -2.17, -1.7, -0.45, -0.57, -0.54, -0.95, -0.45, -0.45, 0.0, 0.0, -0.77, 0.0, 0.0, 0.0, 0.6, 0.0, -2.17, -2.79, -3.15, -2.98, -1.9, 0.0, -0.0, -0.0, -0.0, -8.43, -8.43, -8.82, -8.82, -8.55, -8.55, -8.55, -8.29, -8.65, -8.65, -8.38, -8.73, -8.73, -8.45, -8.45, -8.78, -8.5, -8.22, -8.22, -8.22, -7.93, -7.93, -8.22, -8.22, -8.22, -8.22, -8.22, -8.22, -8.22, -7.9, -7.9, -7.9, -7.59, -7.59, -7.59, -7.27, -6.97, -6.95, -6.95, -6.95, -6.64, -6.34, -6.34, -6.04, -5.72, -5.72, -5.71, -5.71, -5.1, -5.38, -5.08, -5.08, -4.45, -4.74, -4.74, -4.43, -4.43, -4.11, -4.11, -4.11, -3.78, -3.49, -2.86, -2.86, -3.14, -3.07, -3.82, -3.82, -2.24, -1.34, 0.0, 0.0, -0.89, -2.24, -1.79, -1.79, -1.86, -2.68, -3.07, -2.17, -1.7, -1.34, -0.59, 0.0, 0.0, 0.0, 0.0, 1.34, 0.8, -0.89, -2.15, -2.23, -1.84, -1.26, 0.0, -0.0, -0.0, -0.0, -8.43, -8.43, -8.43, -8.82, -8.55, -8.55, -8.55, -8.29, -8.65, -8.65, -8.38, -8.73, -8.73, -8.45, -8.45, -8.78, -8.5, -8.5, -8.22, -8.22, -8.22, -8.22, -8.22, -8.22, -8.22, -8.22, -8.22, -8.22, -8.22, -7.9, -8.19, -8.19, -7.59, -7.59, -7.59, -7.27, -7.27, -7.27, -6.95, -6.95, -6.92, -6.92, -6.64, -6.04, -6.04, -6.01, -6.01, -5.71, -5.71, -5.69, -5.08, -5.37, -4.75, -4.74, -4.74, -4.43, -4.71, -4.37, -4.11, -4.11, -4.11, -3.49, -3.49, -3.2, -3.16, -3.35, -3.6, -3.6, -3.6, -1.26, 0.0, 0.0, 0.0, -1.6, -1.2, -0.89, -1.34, -3.39, -3.82, -3.39, -2.91, -2.63, -2.21, -1.27, -0.66, -1.13, 0.0, 1.7, 2.17, 0.89, -0.63, -0.65, -0.61, -0.57, 0.0, 0.63, 0.63, 0.63, -8.43, -8.43, -8.43, -8.82, -8.55, -8.55, -8.55, -8.29, -8.65, -8.65, -8.38, -8.73, -8.73, -8.45, -8.45, -8.78, -8.78, -8.5, -8.22, -8.22, -8.22, -8.22, -8.22, -8.22, -8.22, -8.22, -8.22, -8.22, -7.9, -8.19, -8.19, -7.86, -7.59, -7.59, -7.59, -7.27, -7.27, -7.55, -6.95, -6.95, -6.92, -6.92, -6.92, -6.32, -6.32, -6.32, -6.32, -5.71, -6.01, -5.69, -5.37, -5.06, -5.06, -4.74, -4.74, -4.43, -4.71, -4.71, -4.37, -4.37, -4.11, -4.07, -4.07, -3.49, -3.48, -3.43, -3.35, -3.72, -3.35, -1.86, -1.2, -0.45, -0.89, -1.26, -1.26, -0.89, -0.63, -3.13, -4.3, -4.73, -3.98, -4.02, -3.39, -2.84, -2.07, -2.53, -0.95, 1.34, 2.17, 2.24, 0.89, 0.0, 0.0, 0.0, 0.89, 0.89, 0.89, 0.89, -8.43, -8.43, -8.43, -8.82, -8.55, -8.55, -8.55, -8.65, -8.65, -8.65, -8.38, -8.73, -8.73, -8.73, -8.45, -8.45, -8.78, -8.78, -8.5, -8.22, -8.22, -8.22, -8.22, -8.22, -8.22, -8.22, -8.22, -8.22, -8.19, -8.19, -8.19, -7.86, -7.86, -7.59, -7.59, -7.27, -7.55, -7.55, -6.95, -6.95, -6.92, -6.92, -6.92, -6.59, -6.32, -6.32, -6.32, -5.71, -6.01, -5.69, -5.69, -5.06, -5.35, -5.35, -5.01, -4.74, -4.71, -4.71, -4.71, -4.65, -4.65, -4.07, -4.07, -3.79, -3.79, -3.73, -3.43, -3.72, -3.72, -2.4, -2.17, -1.79, -1.34, -1.26, -1.26, -1.7, -1.79, -1.7, -3.97, -4.73, -4.43, -4.02, -3.98, -3.6, -3.14, -2.86, -1.86, 0.0, 1.34, 1.79, 1.7, 0.45, 0.0, 0.0, 0.89, 0.89, 0.89, 0.89, -8.43, -8.43, -8.82, -8.82, -8.55, -8.55, -8.55, -8.93, -8.65, -8.65, -8.65, -8.73, -8.73, -8.73, -8.73, -8.45, -8.78, -8.78, -8.78, -8.5, -8.5, -8.22, -8.5, -8.5, -8.5, -8.22, -8.22, -8.52, -8.19, -8.19, -8.19, -7.86, -7.86, -7.86, -7.59, -7.55, -7.55, -7.55, -7.23, -6.95, -6.92, -6.92, -6.92, -6.59, -6.32, -6.32, -6.32, -6.01, -6.01, -5.69, -5.98, -5.37, -5.35, -5.35, -5.35, -5.01, -4.94, -4.94, -4.71, -5.01, -4.65, -4.65, -4.29, -4.41, -4.11, -4.07, -4.0, -3.88, -3.43, -4.27, -4.11, -2.68, -2.24, -0.8, -0.0, -1.2, -1.79, -1.79, -2.17, -3.82, -3.82, -3.98, -4.02, -3.82, -3.45, -3.07, -2.15, -1.26, 0.0, 0.89, 0.89, 0.63, -0.0, 0.45, 0.89, 0.89, 0.89, 0.89, -8.82, -8.82, -8.82, -8.82, -8.55, -8.55, -8.55, -8.93, -8.65, -8.65, -8.65, -8.73, -8.73, -8.73, -8.73, -8.45, -8.78, -8.78, -8.78, -8.78, -8.5, -8.5, -8.5, -8.5, -8.5, -8.5, -8.5, -8.19, -8.19, -8.19, -8.19, -7.86, -7.86, -7.86, -7.88, -7.55, -7.55, -7.23, -7.23, -6.95, -6.92, -6.92, -6.92, -6.59, -6.32, -6.32, -6.32, -6.01, -6.01, -5.69, -5.98, -5.65, -5.35, -5.35, -5.35, -5.01, -5.29, -4.94, -4.94, -4.94, -5.01, -4.93, -4.93, -4.65, -4.65, -4.41, -4.37, -4.0, -4.0, -4.0, -4.11, -2.68, -2.24, -0.45, 0.32, -0.0, -1.2, -1.34, -1.7, -2.91, -3.82, -3.98, -4.47, -4.24, -3.45, -3.07, -2.5, -1.9, -0.54, 0.0, 0.0, 0.0, 0.32, 0.45, 0.32, 0.45, 0.45, 0.45, -8.82, -8.82, -8.82, -8.82, -8.55, -8.55, -8.55, -8.55, -8.65, -8.65, -8.65, -8.65, -8.73, -8.73, -8.73, -8.73, -8.78, -8.78, -8.78, -8.78, -8.78, -8.78, -8.5, -8.5, -8.5, -8.5, -8.78, -8.19, -8.19, -8.19, -8.19, -7.86, -8.15, -8.15, -7.55, -7.55, -7.55, -7.23, -7.23, -7.25, -6.92, -6.92, -6.92, -6.87, -6.87, -6.62, -6.28, -6.28, -6.01, -5.69, -5.65, -5.65, -5.93, -5.59, -5.35, -5.35, -5.29, -5.29, -5.29, -4.94, -5.21, -4.84, -5.08, -4.93, -4.65, -4.65, -4.65, -4.55, -4.0, -4.37, -4.27, -4.3, -3.53, 0.0, 0.0, -0.0, -0.95, -1.2, -1.7, -3.07, -3.58, -4.47, -4.47, -4.43, -4.0, -3.45, -2.53, -1.88, -0.53, -0.65, 0.0, 0.0, 0.0, 0.0, 0.0, 0.0, 0.0, 0.0, -8.82, -8.82, -8.82, -8.82, -8.55, -8.55, -8.55, -8.55, -8.65, -8.65, -8.65, -8.65, -8.73, -8.73, -8.73, -8.73, -8.78, -8.78, -8.78, -8.78, -8.78, -8.78, -8.5, -8.5, -8.5, -8.5, -8.78, -8.19, -8.19, -8.19, -8.19, -7.86, -8.15, -8.15, -7.55, -7.55, -7.55, -7.23, -7.23, -7.25, -6.92, -6.92, -6.92, -6.87, -6.87, -6.62, -6.28, -6.28, -6.01, -5.69, -5.65, -5.65, -5.93, -5.59, -5.35, -5.35, -5.29, -5.29, -5.29, -4.94, -5.21, -4.84, -5.08, -4.93, -4.65, -4.65, -4.65, -4.55, -4.0, -4.37, -4.27, -4.3, -3.53, 0.0, 0.0, -0.0, -1.2, -1.2, -1.7, -3.07, -3.58, -4.47, -4.47, -4.87, -4.4, -3.83, -2.53, -2.15, -1.33, -0.61, -0.61, -0.54, 0.0, 0.0, 0.0, 0.0, 0.0, 0.0]}]